Wetterdaten: Dienstag, 02.04.2013
Datum Zeit Temp. Aussen +5cm Feuchte Auss Luftdruck Regen Sonnenschein Regendauer UV Solar Windben
02.04.2013 00:00 1,8 C -0,4 C 62 % 1010,2 hPa 0,0 l/m 0 min 0 min 0,0 UV-I 0 W/m 0,0 km/h (0 Bft)
02.04.2013 00:02 1,8 C -0,4 C 62 % 1010,2 hPa 0,0 l/m 0 min 0 min 0,0 UV-I 0 W/m 0,0 km/h (0 Bft)
02.04.2013 00:06 1,7 C -0,4 C 62 % 1010,2 hPa 0,0 l/m 0 min 0 min 0,0 UV-I 0 W/m 2,6 km/h (1 Bft)
02.04.2013 00:08 1,7 C -0,4 C 62 % 1010,2 hPa 0,0 l/m 0 min 0 min 0,0 UV-I 0 W/m 7,7 km/h (2 Bft)
02.04.2013 00:10 1,7 C -0,4 C 62 % 1010,2 hPa 0,0 l/m 0 min 0 min 0,0 UV-I 0 W/m 0,0 km/h (0 Bft)
02.04.2013 00:12 1,7 C -0,4 C 62 % 1010,2 hPa 0,0 l/m 0 min 0 min 0,0 UV-I 0 W/m 0,0 km/h (0 Bft)
02.04.2013 00:14 1,6 C -1,0 C 62 % 1010,2 hPa 0,0 l/m 0 min 0 min 0,0 UV-I 0 W/m 0,0 km/h (0 Bft)
02.04.2013 00:16 1,6 C -0,4 C 62 % 1010,2 hPa 0,0 l/m 0 min 0 min 0,0 UV-I 0 W/m 0,0 km/h (0 Bft)
02.04.2013 00:18 1,6 C -1,0 C 63 % 1010,2 hPa 0,0 l/m 0 min 0 min 0,0 UV-I 0 W/m 0,0 km/h (0 Bft)
02.04.2013 00:20 1,5 C -0,4 C 63 % 1010,2 hPa 0,0 l/m 0 min 0 min 0,0 UV-I 0 W/m 5,1 km/h (1 Bft)
02.04.2013 00:22 1,5 C -1,0 C 63 % 1010,2 hPa 0,0 l/m 0 min 0 min 0,0 UV-I 0 W/m 0,0 km/h (0 Bft)
02.04.2013 00:24 1,4 C -1,0 C 63 % 1010,2 hPa 0,0 l/m 0 min 0 min 0,0 UV-I 0 W/m 2,6 km/h (1 Bft)
02.04.2013 00:26 1,4 C -1,0 C 63 % 1010,2 hPa 0,0 l/m 0 min 0 min 0,0 UV-I 0 W/m 0,0 km/h (0 Bft)
02.04.2013 00:28 1,4 C -1,0 C 63 % 1010,2 hPa 0,0 l/m 0 min 0 min 0,0 UV-I 0 W/m 0,0 km/h (0 Bft)
02.04.2013 00:30 1,3 C -1,0 C 63 % 1010,3 hPa 0,0 l/m 0 min 0 min 0,0 UV-I 0 W/m 0,0 km/h (0 Bft)
02.04.2013 00:32 1,3 C -1,0 C 63 % 1010,2 hPa 0,0 l/m 0 min 0 min 0,0 UV-I 0 W/m 0,0 km/h (0 Bft)
02.04.2013 00:34 1,3 C -1,0 C 63 % 1010,3 hPa 0,0 l/m 0 min 0 min 0,0 UV-I 0 W/m 5,1 km/h (1 Bft)
02.04.2013 00:36 1,3 C -1,0 C 63 % 1010,2 hPa 0,0 l/m 0 min 0 min 0,0 UV-I 0 W/m 2,6 km/h (1 Bft)
02.04.2013 00:38 1,3 C -0,4 C 63 % 1010,2 hPa 0,0 l/m 0 min 0 min 0,0 UV-I 0 W/m 12,9 km/h (3 Bft)
02.04.2013 00:40 1,3 C -0,4 C 63 % 1010,2 hPa 0,0 l/m 0 min 0 min 0,0 UV-I 0 W/m 10,3 km/h (2 Bft)
02.04.2013 00:42 1,3 C -0,4 C 63 % 1010,2 hPa 0,0 l/m 0 min 0 min 0,0 UV-I 0 W/m 2,6 km/h (1 Bft)
02.04.2013 00:44 1,3 C -0,4 C 63 % 1010,2 hPa 0,0 l/m 0 min 0 min 0,0 UV-I 0 W/m 0,0 km/h (0 Bft)
02.04.2013 00:46 1,3 C -0,4 C 63 % 1010,2 hPa 0,0 l/m 0 min 0 min 0,0 UV-I 0 W/m 2,6 km/h (1 Bft)
02.04.2013 00:48 1,3 C -0,4 C 63 % 1010,2 hPa 0,0 l/m 0 min 0 min 0,0 UV-I 0 W/m 0,0 km/h (0 Bft)
02.04.2013 00:50 1,3 C -1,0 C 63 % 1010,2 hPa 0,0 l/m 0 min 0 min 0,0 UV-I 0 W/m 0,0 km/h (0 Bft)
02.04.2013 00:52 1,3 C -1,0 C 63 % 1010,2 hPa 0,0 l/m 0 min 0 min 0,0 UV-I 0 W/m 0,0 km/h (0 Bft)
02.04.2013 00:54 1,3 C -1,0 C 64 % 1010,2 hPa 0,0 l/m 0 min 0 min 0,0 UV-I 0 W/m 0,0 km/h (0 Bft)
02.04.2013 00:56 1,3 C -1,0 C 64 % 1010,2 hPa 0,0 l/m 0 min 0 min 0,0 UV-I 0 W/m 0,0 km/h (0 Bft)
02.04.2013 00:58 1,3 C -1,6 C 64 % 1010,2 hPa 0,0 l/m 0 min 0 min 0,0 UV-I 0 W/m 0,0 km/h (0 Bft)
02.04.2013 01:00 1,2 C -1,6 C 64 % 1010,2 hPa 0,0 l/m 0 min 0 min 0,0 UV-I 0 W/m 0,0 km/h (0 Bft)
02.04.2013 01:02 1,2 C -1,6 C 64 % 1010,2 hPa 0,0 l/m 0 min 0 min 0,0 UV-I 0 W/m 0,0 km/h (0 Bft)
02.04.2013 01:06 1,1 C -1,6 C 64 % 1010,2 hPa 0,0 l/m 0 min 0 min 0,0 UV-I 0 W/m 0,0 km/h (0 Bft)
02.04.2013 01:08 1,1 C -2,1 C 64 % 1010,2 hPa 0,0 l/m 0 min 0 min 0,0 UV-I 0 W/m 0,0 km/h (0 Bft)
02.04.2013 01:10 1,0 C -2,1 C 65 % 1010,2 hPa 0,0 l/m 0 min 0 min 0,0 UV-I 0 W/m 0,0 km/h (0 Bft)
02.04.2013 01:12 0,9 C -2,1 C 65 % 1010,2 hPa 0,0 l/m 0 min 0 min 0,0 UV-I 0 W/m 0,0 km/h (0 Bft)
02.04.2013 01:14 0,9 C -2,1 C 65 % 1010,1 hPa 0,0 l/m 0 min 0 min 0,0 UV-I 0 W/m 0,0 km/h (0 Bft)
02.04.2013 01:16 0,9 C -2,1 C 65 % 1010,2 hPa 0,0 l/m 0 min 0 min 0,0 UV-I 0 W/m 0,0 km/h (0 Bft)
02.04.2013 01:18 0,8 C -2,1 C 65 % 1010,2 hPa 0,0 l/m 0 min 0 min 0,0 UV-I 0 W/m 0,0 km/h (0 Bft)
02.04.2013 01:20 0,8 C -2,1 C 65 % 1010,2 hPa 0,0 l/m 0 min 0 min 0,0 UV-I 0 W/m 0,0 km/h (0 Bft)
02.04.2013 01:22 0,8 C -2,7 C 65 % 1010,2 hPa 0,0 l/m 0 min 0 min 0,0 UV-I 0 W/m 0,0 km/h (0 Bft)
02.04.2013 01:24 0,7 C -2,7 C 65 % 1010,2 hPa 0,0 l/m 0 min 0 min 0,0 UV-I 0 W/m 0,0 km/h (0 Bft)
02.04.2013 01:26 0,7 C -2,7 C 65 % 1010,2 hPa 0,0 l/m 0 min 0 min 0,0 UV-I 0 W/m 0,0 km/h (0 Bft)
02.04.2013 01:28 0,6 C -2,7 C 65 % 1010,1 hPa 0,0 l/m 0 min 0 min 0,0 UV-I 0 W/m 0,0 km/h (0 Bft)
02.04.2013 01:30 0,6 C -2,7 C 66 % 1010,2 hPa 0,0 l/m 0 min 0 min 0,0 UV-I 0 W/m 0,0 km/h (0 Bft)
02.04.2013 01:32 0,6 C -2,7 C 66 % 1010,2 hPa 0,0 l/m 0 min 0 min 0,0 UV-I 0 W/m 0,0 km/h (0 Bft)
02.04.2013 01:34 0,5 C -2,7 C 66 % 1010,2 hPa 0,0 l/m 0 min 0 min 0,0 UV-I 0 W/m 0,0 km/h (0 Bft)
02.04.2013 01:36 0,4 C -2,7 C 66 % 1010,2 hPa 0,0 l/m 0 min 0 min 0,0 UV-I 0 W/m 0,0 km/h (0 Bft)
02.04.2013 01:38 0,4 C -2,7 C 66 % 1010,2 hPa 0,0 l/m 0 min 0 min 0,0 UV-I 0 W/m 0,0 km/h (0 Bft)
02.04.2013 01:40 0,3 C -2,7 C 67 % 1010,2 hPa 0,0 l/m 0 min 0 min 0,0 UV-I 0 W/m 0,0 km/h (0 Bft)
02.04.2013 01:42 0,3 C -2,7 C 67 % 1010,2 hPa 0,0 l/m 0 min 0 min 0,0 UV-I 0 W/m 0,0 km/h (0 Bft)
02.04.2013 01:44 0,2 C -2,7 C 67 % 1010,1 hPa 0,0 l/m 0 min 0 min 0,0 UV-I 0 W/m 0,0 km/h (0 Bft)
02.04.2013 01:46 0,2 C -2,7 C 67 % 1010,2 hPa 0,0 l/m 0 min 0 min 0,0 UV-I 0 W/m 0,0 km/h (0 Bft)
02.04.2013 01:48 0,2 C -2,7 C 67 % 1010,2 hPa 0,0 l/m 0 min 0 min 0,0 UV-I 0 W/m 0,0 km/h (0 Bft)
02.04.2013 01:50 0,1 C -2,7 C 68 % 1010,2 hPa 0,0 l/m 0 min 0 min 0,0 UV-I 0 W/m 0,0 km/h (0 Bft)
02.04.2013 01:52 0,1 C -2,7 C 68 % 1010,2 hPa 0,0 l/m 0 min 0 min 0,0 UV-I 0 W/m 0,0 km/h (0 Bft)
02.04.2013 01:54 0,0 C -2,7 C 68 % 1010,2 hPa 0,0 l/m 0 min 0 min 0,0 UV-I 0 W/m 0,0 km/h (0 Bft)
02.04.2013 01:56 -0,1 C -2,7 C 68 % 1010,3 hPa 0,0 l/m 0 min 0 min 0,0 UV-I 0 W/m 0,0 km/h (0 Bft)
02.04.2013 01:58 -0,1 C -2,7 C 69 % 1010,3 hPa 0,0 l/m 0 min 0 min 0,0 UV-I 0 W/m 0,0 km/h (0 Bft)
02.04.2013 02:00 -0,1 C -2,7 C 69 % 1010,3 hPa 0,0 l/m 0 min 0 min 0,0 UV-I 0 W/m 0,0 km/h (0 Bft)
02.04.2013 02:02 -0,1 C -2,7 C 69 % 1010,3 hPa 0,0 l/m 0 min 0 min 0,0 UV-I 0 W/m 0,0 km/h (0 Bft)
02.04.2013 02:06 -0,2 C -2,7 C 69 % 1010,4 hPa 0,0 l/m 0 min 0 min 0,0 UV-I 0 W/m 0,0 km/h (0 Bft)
02.04.2013 02:08 -0,2 C -2,7 C 69 % 1010,3 hPa 0,0 l/m 0 min 0 min 0,0 UV-I 0 W/m 0,0 km/h (0 Bft)
02.04.2013 02:10 -0,2 C -2,7 C 69 % 1010,3 hPa 0,0 l/m 0 min 0 min 0,0 UV-I 0 W/m 0,0 km/h (0 Bft)
02.04.2013 02:12 -0,3 C -3,2 C 69 % 1010,3 hPa 0,0 l/m 0 min 0 min 0,0 UV-I 0 W/m 0,0 km/h (0 Bft)
02.04.2013 02:14 -0,3 C -3,2 C 69 % 1010,3 hPa 0,0 l/m 0 min 0 min 0,0 UV-I 0 W/m 0,0 km/h (0 Bft)
02.04.2013 02:16 -0,3 C -3,2 C 69 % 1010,4 hPa 0,0 l/m 0 min 0 min 0,0 UV-I 0 W/m 0,0 km/h (0 Bft)
02.04.2013 02:18 -0,3 C -3,2 C 70 % 1010,4 hPa 0,0 l/m 0 min 0 min 0,0 UV-I 0 W/m 0,0 km/h (0 Bft)
02.04.2013 02:20 -0,3 C -3,2 C 70 % 1010,4 hPa 0,0 l/m 0 min 0 min 0,0 UV-I 0 W/m 0,0 km/h (0 Bft)
02.04.2013 02:22 -0,4 C -3,2 C 70 % 1010,4 hPa 0,0 l/m 0 min 0 min 0,0 UV-I 0 W/m 0,0 km/h (0 Bft)
02.04.2013 02:24 -0,4 C -3,2 C 70 % 1010,5 hPa 0,0 l/m 0 min 0 min 0,0 UV-I 0 W/m 0,0 km/h (0 Bft)
02.04.2013 02:26 -0,4 C -3,2 C 70 % 1010,4 hPa 0,0 l/m 0 min 0 min 0,0 UV-I 0 W/m 0,0 km/h (0 Bft)
02.04.2013 02:28 -0,4 C -3,2 C 70 % 1010,5 hPa 0,0 l/m 0 min 0 min 0,0 UV-I 0 W/m 0,0 km/h (0 Bft)
02.04.2013 02:30 -0,4 C -3,2 C 70 % 1010,4 hPa 0,0 l/m 0 min 0 min 0,0 UV-I 0 W/m 0,0 km/h (0 Bft)
02.04.2013 02:32 -0,5 C -3,2 C 70 % 1010,4 hPa 0,0 l/m 0 min 0 min 0,0 UV-I 0 W/m 0,0 km/h (0 Bft)
02.04.2013 02:34 -0,5 C -3,2 C 70 % 1010,5 hPa 0,0 l/m 0 min 0 min 0,0 UV-I 0 W/m 0,0 km/h (0 Bft)
02.04.2013 02:36 -0,5 C -3,2 C 70 % 1010,5 hPa 0,0 l/m 0 min 0 min 0,0 UV-I 0 W/m 0,0 km/h (0 Bft)
02.04.2013 02:38 -0,6 C -3,2 C 71 % 1010,5 hPa 0,0 l/m 0 min 0 min 0,0 UV-I 0 W/m 5,1 km/h (1 Bft)
02.04.2013 02:40 -0,6 C -3,2 C 71 % 1010,5 hPa 0,0 l/m 0 min 0 min 0,0 UV-I 0 W/m 0,0 km/h (0 Bft)
02.04.2013 02:42 -0,6 C -3,2 C 71 % 1010,5 hPa 0,0 l/m 0 min 0 min 0,0 UV-I 0 W/m 0,0 km/h (0 Bft)
02.04.2013 02:44 -0,6 C -3,2 C 71 % 1010,5 hPa 0,0 l/m 0 min 0 min 0,0 UV-I 0 W/m 0,0 km/h (0 Bft)
02.04.2013 02:46 -0,6 C -3,2 C 71 % 1010,5 hPa 0,0 l/m 0 min 0 min 0,0 UV-I 0 W/m 0,0 km/h (0 Bft)
02.04.2013 02:48 -0,6 C -3,2 C 71 % 1010,5 hPa 0,0 l/m 0 min 0 min 0,0 UV-I 0 W/m 0,0 km/h (0 Bft)
02.04.2013 02:50 -0,6 C -3,2 C 71 % 1010,6 hPa 0,0 l/m 0 min 0 min 0,0 UV-I 0 W/m 0,0 km/h (0 Bft)
02.04.2013 02:52 -0,6 C -3,2 C 71 % 1010,6 hPa 0,0 l/m 0 min 0 min 0,0 UV-I 0 W/m 0,0 km/h (0 Bft)
02.04.2013 02:54 -0,7 C -3,2 C 71 % 1010,6 hPa 0,0 l/m 0 min 0 min 0,0 UV-I 0 W/m 0,0 km/h (0 Bft)
02.04.2013 02:56 -0,7 C -3,2 C 71 % 1010,6 hPa 0,0 l/m 0 min 0 min 0,0 UV-I 0 W/m 0,0 km/h (0 Bft)
02.04.2013 02:58 -0,7 C -3,2 C 71 % 1010,6 hPa 0,0 l/m 0 min 0 min 0,0 UV-I 0 W/m 0,0 km/h (0 Bft)
02.04.2013 03:00 -0,7 C -3,2 C 71 % 1010,7 hPa 0,0 l/m 0 min 0 min 0,0 UV-I 0 W/m 0,0 km/h (0 Bft)
02.04.2013 03:02 -0,7 C -3,2 C 72 % 1010,7 hPa 0,0 l/m 0 min 0 min 0,0 UV-I 0 W/m 0,0 km/h (0 Bft)
02.04.2013 03:06 -0,7 C -3,2 C 72 % 1010,6 hPa 0,0 l/m 0 min 0 min 0,0 UV-I 0 W/m 0,0 km/h (0 Bft)
02.04.2013 03:08 -0,8 C -3,2 C 72 % 1010,7 hPa 0,0 l/m 0 min 0 min 0,0 UV-I 0 W/m 0,0 km/h (0 Bft)
02.04.2013 03:10 -0,8 C -3,2 C 72 % 1010,7 hPa 0,0 l/m 0 min 0 min 0,0 UV-I 0 W/m 0,0 km/h (0 Bft)
02.04.2013 03:12 -0,8 C -3,2 C 72 % 1010,5 hPa 0,0 l/m 0 min 0 min 0,0 UV-I 0 W/m 0,0 km/h (0 Bft)
02.04.2013 03:14 -0,8 C -3,2 C 72 % 1010,6 hPa 0,0 l/m 0 min 0 min 0,0 UV-I 0 W/m 0,0 km/h (0 Bft)
02.04.2013 03:16 -0,8 C -3,2 C 72 % 1010,8 hPa 0,0 l/m 0 min 0 min 0,0 UV-I 0 W/m 0,0 km/h (0 Bft)
02.04.2013 03:18 -0,9 C -3,2 C 72 % 1010,8 hPa 0,0 l/m 0 min 0 min 0,0 UV-I 0 W/m 0,0 km/h (0 Bft)
02.04.2013 03:20 -0,9 C -3,2 C 72 % 1010,8 hPa 0,0 l/m 0 min 0 min 0,0 UV-I 0 W/m 0,0 km/h (0 Bft)
02.04.2013 03:22 -0,9 C -3,2 C 72 % 1010,8 hPa 0,0 l/m 0 min 0 min 0,0 UV-I 0 W/m 0,0 km/h (0 Bft)
02.04.2013 03:24 -0,9 C -3,2 C 73 % 1010,6 hPa 0,0 l/m 0 min 0 min 0,0 UV-I 0 W/m 0,0 km/h (0 Bft)
02.04.2013 03:26 -0,9 C -3,2 C 73 % 1010,6 hPa 0,0 l/m 0 min 0 min 0,0 UV-I 0 W/m 0,0 km/h (0 Bft)
02.04.2013 03:28 -0,9 C -3,2 C 73 % 1010,6 hPa 0,0 l/m 0 min 0 min 0,0 UV-I 0 W/m 0,0 km/h (0 Bft)
02.04.2013 03:30 -1,0 C -3,2 C 73 % 1010,6 hPa 0,0 l/m 0 min 0 min 0,0 UV-I 0 W/m 0,0 km/h (0 Bft)
02.04.2013 03:32 -1,0 C -3,2 C 73 % 1010,6 hPa 0,0 l/m 0 min 0 min 0,0 UV-I 0 W/m 0,0 km/h (0 Bft)
02.04.2013 03:34 -1,0 C -3,2 C 73 % 1010,8 hPa 0,0 l/m 0 min 0 min 0,0 UV-I 0 W/m 0,0 km/h (0 Bft)
02.04.2013 03:36 -1,1 C -3,2 C 73 % 1010,7 hPa 0,0 l/m 0 min 0 min 0,0 UV-I 0 W/m 0,0 km/h (0 Bft)
02.04.2013 03:38 -1,1 C -3,2 C 73 % 1010,6 hPa 0,0 l/m 0 min 0 min 0,0 UV-I 0 W/m 0,0 km/h (0 Bft)
02.04.2013 03:40 -1,1 C -3,2 C 73 % 1010,6 hPa 0,0 l/m 0 min 0 min 0,0 UV-I 0 W/m 0,0 km/h (0 Bft)
02.04.2013 03:42 -1,1 C -3,2 C 74 % 1010,6 hPa 0,0 l/m 0 min 0 min 0,0 UV-I 0 W/m 0,0 km/h (0 Bft)
02.04.2013 03:44 -1,1 C -3,2 C 74 % 1010,6 hPa 0,0 l/m 0 min 0 min 0,0 UV-I 0 W/m 0,0 km/h (0 Bft)
02.04.2013 03:46 -1,1 C -3,2 C 74 % 1010,6 hPa 0,0 l/m 0 min 0 min 0,0 UV-I 0 W/m 0,0 km/h (0 Bft)
02.04.2013 03:48 -1,1 C -3,2 C 74 % 1010,6 hPa 0,0 l/m 0 min 0 min 0,0 UV-I 0 W/m 0,0 km/h (0 Bft)
02.04.2013 03:50 -1,1 C -3,2 C 74 % 1010,7 hPa 0,0 l/m 0 min 0 min 0,0 UV-I 0 W/m 0,0 km/h (0 Bft)
02.04.2013 03:52 -1,2 C -3,2 C 74 % 1010,7 hPa 0,0 l/m 0 min 0 min 0,0 UV-I 0 W/m 0,0 km/h (0 Bft)
02.04.2013 03:54 -1,2 C -3,2 C 74 % 1010,7 hPa 0,0 l/m 0 min 0 min 0,0 UV-I 0 W/m 0,0 km/h (0 Bft)
02.04.2013 03:56 -1,2 C -3,2 C 74 % 1010,5 hPa 0,0 l/m 0 min 0 min 0,0 UV-I 0 W/m 0,0 km/h (0 Bft)
02.04.2013 03:58 -1,2 C -3,2 C 73 % 1010,5 hPa 0,0 l/m 0 min 0 min 0,0 UV-I 0 W/m 0,0 km/h (0 Bft)
02.04.2013 04:00 -1,2 C -3,2 C 73 % 1010,5 hPa 0,0 l/m 0 min 0 min 0,0 UV-I 0 W/m 0,0 km/h (0 Bft)
02.04.2013 04:02 -1,2 C -3,2 C 73 % 1010,6 hPa 0,0 l/m 0 min 0 min 0,0 UV-I 0 W/m 0,0 km/h (0 Bft)
02.04.2013 04:06 -1,2 C -3,8 C 73 % 1010,7 hPa 0,0 l/m 0 min 0 min 0,0 UV-I 0 W/m 0,0 km/h (0 Bft)
02.04.2013 04:08 -1,2 C -3,8 C 74 % 1010,8 hPa 0,0 l/m 0 min 0 min 0,0 UV-I 0 W/m 0,0 km/h (0 Bft)
02.04.2013 04:10 -1,3 C -3,8 C 74 % 1010,7 hPa 0,0 l/m 0 min 0 min 0,0 UV-I 0 W/m 0,0 km/h (0 Bft)
02.04.2013 04:12 -1,3 C -3,8 C 74 % 1010,7 hPa 0,0 l/m 0 min 0 min 0,0 UV-I 0 W/m 0,0 km/h (0 Bft)
02.04.2013 04:14 -1,3 C -3,8 C 74 % 1010,7 hPa 0,0 l/m 0 min 0 min 0,0 UV-I 0 W/m 0,0 km/h (0 Bft)
02.04.2013 04:16 -1,3 C -3,8 C 74 % 1010,6 hPa 0,0 l/m 0 min 0 min 0,0 UV-I 0 W/m 0,0 km/h (0 Bft)
02.04.2013 04:18 -1,3 C -3,8 C 74 % 1010,6 hPa 0,0 l/m 0 min 0 min 0,0 UV-I 0 W/m 0,0 km/h (0 Bft)
02.04.2013 04:20 -1,4 C -3,8 C 74 % 1010,5 hPa 0,0 l/m 0 min 0 min 0,0 UV-I 0 W/m 0,0 km/h (0 Bft)
02.04.2013 04:22 -1,4 C -3,8 C 74 % 1010,4 hPa 0,0 l/m 0 min 0 min 0,0 UV-I 0 W/m 0,0 km/h (0 Bft)
02.04.2013 04:24 -1,4 C -3,8 C 74 % 1010,5 hPa 0,0 l/m 0 min 0 min 0,0 UV-I 0 W/m 0,0 km/h (0 Bft)
02.04.2013 04:26 -1,5 C -3,8 C 74 % 1010,5 hPa 0,0 l/m 0 min 0 min 0,0 UV-I 0 W/m 0,0 km/h (0 Bft)
02.04.2013 04:28 -1,5 C -3,8 C 74 % 1010,6 hPa 0,0 l/m 0 min 0 min 0,0 UV-I 0 W/m 0,0 km/h (0 Bft)
02.04.2013 04:30 -1,5 C -3,8 C 75 % 1010,6 hPa 0,0 l/m 0 min 0 min 0,0 UV-I 0 W/m 0,0 km/h (0 Bft)
02.04.2013 04:32 -1,6 C -3,8 C 75 % 1010,4 hPa 0,0 l/m 0 min 0 min 0,0 UV-I 0 W/m 0,0 km/h (0 Bft)
02.04.2013 04:34 -1,6 C -3,8 C 75 % 1010,5 hPa 0,0 l/m 0 min 0 min 0,0 UV-I 0 W/m 0,0 km/h (0 Bft)
02.04.2013 04:36 -1,6 C -3,8 C 75 % 1010,4 hPa 0,0 l/m 0 min 0 min 0,0 UV-I 0 W/m 0,0 km/h (0 Bft)
02.04.2013 04:38 -1,6 C -3,8 C 75 % 1010,4 hPa 0,0 l/m 0 min 0 min 0,0 UV-I 0 W/m 0,0 km/h (0 Bft)
02.04.2013 04:40 -1,6 C -3,8 C 75 % 1010,4 hPa 0,0 l/m 0 min 0 min 0,0 UV-I 0 W/m 2,6 km/h (1 Bft)
02.04.2013 04:42 -1,7 C -3,8 C 76 % 1010,4 hPa 0,0 l/m 0 min 0 min 0,0 UV-I 0 W/m 0,0 km/h (0 Bft)
02.04.2013 04:44 -1,7 C -3,8 C 76 % 1010,4 hPa 0,0 l/m 0 min 0 min 0,0 UV-I 0 W/m 0,0 km/h (0 Bft)
02.04.2013 04:46 -1,7 C -3,8 C 76 % 1010,5 hPa 0,0 l/m 0 min 0 min 0,0 UV-I 0 W/m 0,0 km/h (0 Bft)
02.04.2013 04:48 -1,7 C -3,8 C 76 % 1010,5 hPa 0,0 l/m 0 min 0 min 0,0 UV-I 0 W/m 0,0 km/h (0 Bft)
02.04.2013 04:50 -1,7 C -3,8 C 76 % 1010,5 hPa 0,0 l/m 0 min 0 min 0,0 UV-I 0 W/m 0,0 km/h (0 Bft)
02.04.2013 04:52 -1,7 C -3,8 C 76 % 1010,5 hPa 0,0 l/m 0 min 0 min 0,0 UV-I 0 W/m 0,0 km/h (0 Bft)
02.04.2013 04:54 -1,7 C -3,8 C 76 % 1010,5 hPa 0,0 l/m 0 min 0 min 0,0 UV-I 0 W/m 0,0 km/h (0 Bft)
02.04.2013 04:56 -1,7 C -3,8 C 76 % 1010,5 hPa 0,0 l/m 0 min 0 min 0,0 UV-I 0 W/m 0,0 km/h (0 Bft)
02.04.2013 04:58 -1,8 C -3,8 C 76 % 1010,5 hPa 0,0 l/m 0 min 0 min 0,0 UV-I 0 W/m 0,0 km/h (0 Bft)
02.04.2013 05:00 -1,8 C -3,8 C 76 % 1010,6 hPa 0,0 l/m 0 min 0 min 0,0 UV-I 0 W/m 0,0 km/h (0 Bft)
02.04.2013 05:02 -1,8 C -3,8 C 76 % 1010,5 hPa 0,0 l/m 0 min 0 min 0,0 UV-I 0 W/m 0,0 km/h (0 Bft)
02.04.2013 05:06 -1,8 C -3,8 C 76 % 1010,5 hPa 0,0 l/m 0 min 0 min 0,0 UV-I 0 W/m 0,0 km/h (0 Bft)
02.04.2013 05:08 -1,8 C -3,8 C 76 % 1010,5 hPa 0,0 l/m 0 min 0 min 0,0 UV-I 0 W/m 0,0 km/h (0 Bft)
02.04.2013 05:10 -1,8 C -3,8 C 76 % 1010,5 hPa 0,0 l/m 0 min 0 min 0,0 UV-I 0 W/m 0,0 km/h (0 Bft)
02.04.2013 05:12 -1,8 C -3,8 C 76 % 1010,6 hPa 0,0 l/m 0 min 0 min 0,0 UV-I 0 W/m 0,0 km/h (0 Bft)
02.04.2013 05:14 -1,9 C -3,8 C 76 % 1010,6 hPa 0,0 l/m 0 min 0 min 0,0 UV-I 0 W/m 0,0 km/h (0 Bft)
02.04.2013 05:16 -1,9 C -3,8 C 76 % 1010,6 hPa 0,0 l/m 0 min 0 min 0,0 UV-I 0 W/m 0,0 km/h (0 Bft)
02.04.2013 05:18 -1,9 C -3,8 C 76 % 1010,6 hPa 0,0 l/m 0 min 0 min 0,0 UV-I 0 W/m 0,0 km/h (0 Bft)
02.04.2013 05:20 -1,9 C -3,8 C 77 % 1010,5 hPa 0,0 l/m 0 min 0 min 0,0 UV-I 0 W/m 0,0 km/h (0 Bft)
02.04.2013 05:22 -1,9 C -3,8 C 77 % 1010,5 hPa 0,0 l/m 0 min 0 min 0,0 UV-I 0 W/m 0,0 km/h (0 Bft)
02.04.2013 05:24 -1,9 C -3,8 C 77 % 1010,6 hPa 0,0 l/m 0 min 0 min 0,0 UV-I 0 W/m 0,0 km/h (0 Bft)
02.04.2013 05:26 -1,9 C -3,8 C 77 % 1010,5 hPa 0,0 l/m 0 min 0 min 0,0 UV-I 0 W/m 0,0 km/h (0 Bft)
02.04.2013 05:28 -2,0 C -3,8 C 77 % 1010,6 hPa 0,0 l/m 0 min 0 min 0,0 UV-I 0 W/m 0,0 km/h (0 Bft)
02.04.2013 05:30 -2,0 C -3,8 C 77 % 1010,6 hPa 0,0 l/m 0 min 0 min 0,0 UV-I 0 W/m 0,0 km/h (0 Bft)
02.04.2013 05:32 -2,0 C -4,3 C 77 % 1010,6 hPa 0,0 l/m 0 min 0 min 0,0 UV-I 0 W/m 0,0 km/h (0 Bft)
02.04.2013 05:34 -2,1 C -4,3 C 77 % 1010,5 hPa 0,0 l/m 0 min 0 min 0,0 UV-I 0 W/m 0,0 km/h (0 Bft)
02.04.2013 05:36 -2,1 C -3,8 C 77 % 1010,5 hPa 0,0 l/m 0 min 0 min 0,0 UV-I 0 W/m 0,0 km/h (0 Bft)
02.04.2013 05:38 -2,1 C -3,8 C 77 % 1010,6 hPa 0,0 l/m 0 min 0 min 0,0 UV-I 0 W/m 0,0 km/h (0 Bft)
02.04.2013 05:40 -2,1 C -4,3 C 77 % 1010,6 hPa 0,0 l/m 0 min 0 min 0,0 UV-I 0 W/m 0,0 km/h (0 Bft)
02.04.2013 05:42 -2,1 C -4,3 C 77 % 1010,6 hPa 0,0 l/m 0 min 0 min 0,0 UV-I 0 W/m 0,0 km/h (0 Bft)
02.04.2013 05:44 -2,1 C -3,8 C 78 % 1010,6 hPa 0,0 l/m 0 min 0 min 0,0 UV-I 0 W/m 0,0 km/h (0 Bft)
02.04.2013 05:46 -2,1 C -3,8 C 78 % 1010,6 hPa 0,0 l/m 0 min 0 min 0,0 UV-I 0 W/m 0,0 km/h (0 Bft)
02.04.2013 05:48 -2,1 C -3,8 C 78 % 1010,6 hPa 0,0 l/m 0 min 0 min 0,0 UV-I 0 W/m 0,0 km/h (0 Bft)
02.04.2013 05:50 -2,1 C -3,8 C 78 % 1010,6 hPa 0,0 l/m 0 min 0 min 0,0 UV-I 0 W/m 0,0 km/h (0 Bft)
02.04.2013 05:52 -2,1 C -3,8 C 78 % 1010,6 hPa 0,0 l/m 0 min 0 min 0,0 UV-I 0 W/m 0,0 km/h (0 Bft)
02.04.2013 05:54 -2,1 C -4,3 C 78 % 1010,6 hPa 0,0 l/m 0 min 0 min 0,0 UV-I 0 W/m 0,0 km/h (0 Bft)
02.04.2013 05:56 -2,1 C -4,3 C 78 % 1010,6 hPa 0,0 l/m 0 min 0 min 0,0 UV-I 0 W/m 0,0 km/h (0 Bft)
02.04.2013 05:58 -2,1 C -4,3 C 78 % 1010,6 hPa 0,0 l/m 0 min 0 min 0,0 UV-I 0 W/m 0,0 km/h (0 Bft)
02.04.2013 06:00 -2,1 C -4,3 C 78 % 1010,6 hPa 0,0 l/m 0 min 0 min 0,0 UV-I 0 W/m 0,0 km/h (0 Bft)
02.04.2013 06:02 -2,1 C -4,3 C 78 % 1010,6 hPa 0,0 l/m 0 min 0 min 0,0 UV-I 0 W/m 0,0 km/h (0 Bft)
02.04.2013 06:06 -2,1 C -4,3 C 78 % 1010,6 hPa 0,0 l/m 0 min 0 min 0,0 UV-I 0 W/m 0,0 km/h (0 Bft)
02.04.2013 06:08 -2,1 C -4,3 C 78 % 1010,7 hPa 0,0 l/m 0 min 0 min 0,0 UV-I 0 W/m 0,0 km/h (0 Bft)
02.04.2013 06:10 -2,1 C -3,8 C 79 % 1010,6 hPa 0,0 l/m 0 min 0 min 0,0 UV-I 0 W/m 2,6 km/h (1 Bft)
02.04.2013 06:12 -2,1 C -3,8 C 79 % 1010,6 hPa 0,0 l/m 0 min 0 min 0,0 UV-I 0 W/m 0,0 km/h (0 Bft)
02.04.2013 06:14 -2,1 C -3,8 C 79 % 1010,6 hPa 0,0 l/m 0 min 0 min 0,0 UV-I 0 W/m 0,0 km/h (0 Bft)
02.04.2013 06:16 -2,1 C -3,8 C 79 % 1010,6 hPa 0,0 l/m 0 min 0 min 0,0 UV-I 0 W/m 0,0 km/h (0 Bft)
02.04.2013 06:18 -2,1 C -3,8 C 79 % 1010,6 hPa 0,0 l/m 0 min 0 min 0,0 UV-I 0 W/m 0,0 km/h (0 Bft)
02.04.2013 06:20 -2,1 C -3,8 C 79 % 1010,6 hPa 0,0 l/m 0 min 0 min 0,0 UV-I 0 W/m 0,0 km/h (0 Bft)
02.04.2013 06:22 -2,1 C -3,8 C 79 % 1010,6 hPa 0,0 l/m 0 min 0 min 0,0 UV-I 0 W/m 0,0 km/h (0 Bft)
02.04.2013 06:24 -2,1 C -3,8 C 79 % 1010,6 hPa 0,0 l/m 0 min 0 min 0,0 UV-I 0 W/m 0,0 km/h (0 Bft)
02.04.2013 06:26 -2,1 C -3,8 C 79 % 1010,6 hPa 0,0 l/m 0 min 0 min 0,0 UV-I 0 W/m 0,0 km/h (0 Bft)
02.04.2013 06:28 -2,1 C -4,3 C 79 % 1010,6 hPa 0,0 l/m 0 min 0 min 0,0 UV-I 0 W/m 0,0 km/h (0 Bft)
02.04.2013 06:30 -2,1 C -4,3 C 79 % 1010,6 hPa 0,0 l/m 0 min 0 min 0,0 UV-I 0 W/m 0,0 km/h (0 Bft)
02.04.2013 06:32 -2,1 C -4,3 C 79 % 1010,7 hPa 0,0 l/m 0 min 0 min 0,0 UV-I 0 W/m 0,0 km/h (0 Bft)
02.04.2013 06:34 -2,1 C -4,3 C 79 % 1010,7 hPa 0,0 l/m 0 min 0 min 0,0 UV-I 0 W/m 0,0 km/h (0 Bft)
02.04.2013 06:36 -2,1 C -4,3 C 79 % 1010,7 hPa 0,0 l/m 0 min 0 min 0,0 UV-I 0 W/m 0,0 km/h (0 Bft)
02.04.2013 06:38 -2,1 C -4,3 C 79 % 1010,8 hPa 0,0 l/m 0 min 0 min 0,0 UV-I 0 W/m 0,0 km/h (0 Bft)
02.04.2013 06:40 -2,2 C -4,3 C 79 % 1010,8 hPa 0,0 l/m 0 min 0 min 0,0 UV-I 0 W/m 0,0 km/h (0 Bft)
02.04.2013 06:42 -2,2 C -4,3 C 79 % 1010,8 hPa 0,0 l/m 0 min 0 min 0,0 UV-I 0 W/m 0,0 km/h (0 Bft)
02.04.2013 06:44 -2,2 C -4,3 C 80 % 1010,8 hPa 0,0 l/m 0 min 0 min 0,0 UV-I 0 W/m 0,0 km/h (0 Bft)
02.04.2013 06:46 -2,2 C -4,3 C 80 % 1010,8 hPa 0,0 l/m 0 min 0 min 0,0 UV-I 0 W/m 2,6 km/h (1 Bft)
02.04.2013 06:48 -2,2 C -4,3 C 80 % 1010,9 hPa 0,0 l/m 0 min 0 min 0,0 UV-I 0 W/m 2,6 km/h (1 Bft)
02.04.2013 06:50 -2,2 C -3,8 C 80 % 1010,8 hPa 0,0 l/m 0 min 0 min 0,0 UV-I 0 W/m 0,0 km/h (0 Bft)
02.04.2013 06:52 -2,2 C -3,8 C 80 % 1010,8 hPa 0,0 l/m 0 min 0 min 0,0 UV-I 0 W/m 0,0 km/h (0 Bft)
02.04.2013 06:54 -2,2 C -3,8 C 80 % 1010,9 hPa 0,0 l/m 0 min 0 min 0,0 UV-I 0 W/m 2,6 km/h (1 Bft)
02.04.2013 06:56 -2,2 C -3,8 C 80 % 1010,9 hPa 0,0 l/m 0 min 0 min 0,0 UV-I 0 W/m 0,0 km/h (0 Bft)
02.04.2013 06:58 -2,2 C -3,8 C 81 % 1010,9 hPa 0,0 l/m 0 min 0 min 0,0 UV-I 0 W/m 0,0 km/h (0 Bft)
02.04.2013 07:00 -2,2 C -3,8 C 81 % 1010,8 hPa 0,0 l/m 0 min 0 min 0,0 UV-I 0 W/m 2,6 km/h (1 Bft)
02.04.2013 07:02 -2,1 C -3,8 C 81 % 1010,8 hPa 0,0 l/m 0 min 0 min 0,0 UV-I 0 W/m 5,1 km/h (1 Bft)
02.04.2013 07:06 -2,1 C -3,8 C 81 % 1010,9 hPa 0,0 l/m 0 min 0 min 0,0 UV-I 0 W/m 0,0 km/h (0 Bft)
02.04.2013 07:08 -2,1 C -3,8 C 81 % 1010,9 hPa 0,0 l/m 0 min 0 min 0,0 UV-I 0 W/m 2,6 km/h (1 Bft)
02.04.2013 07:10 -2,1 C -3,8 C 81 % 1010,9 hPa 0,0 l/m 0 min 0 min 0,0 UV-I 0 W/m 2,6 km/h (1 Bft)
02.04.2013 07:12 -2,1 C -3,8 C 81 % 1010,9 hPa 0,0 l/m 0 min 0 min 0,0 UV-I 5 W/m 7,7 km/h (2 Bft)
02.04.2013 07:14 -2,1 C -3,2 C 81 % 1010,9 hPa 0,0 l/m 0 min 0 min 0,0 UV-I 5 W/m 0,0 km/h (0 Bft)
02.04.2013 07:16 -2,0 C -3,2 C 81 % 1010,8 hPa 0,0 l/m 0 min 0 min 0,0 UV-I 5 W/m 5,1 km/h (1 Bft)
02.04.2013 07:18 -2,0 C -3,2 C 81 % 1010,8 hPa 0,0 l/m 0 min 0 min 0,0 UV-I 7 W/m 5,1 km/h (1 Bft)
02.04.2013 07:20 -1,9 C -3,2 C 81 % 1010,8 hPa 0,0 l/m 0 min 0 min 0,0 UV-I 7 W/m 2,6 km/h (1 Bft)
02.04.2013 07:22 -1,9 C -3,2 C 81 % 1010,8 hPa 0,0 l/m 0 min 0 min 0,0 UV-I 9 W/m 2,6 km/h (1 Bft)
02.04.2013 07:24 -1,9 C -3,2 C 81 % 1010,8 hPa 0,0 l/m 0 min 0 min 0,0 UV-I 9 W/m 7,7 km/h (2 Bft)
02.04.2013 07:26 -1,9 C -3,2 C 81 % 1010,9 hPa 0,0 l/m 0 min 0 min 0,0 UV-I 11 W/m 0,0 km/h (0 Bft)
02.04.2013 07:28 -1,9 C -3,2 C 81 % 1010,9 hPa 0,0 l/m 0 min 0 min 0,0 UV-I 11 W/m 5,1 km/h (1 Bft)
02.04.2013 07:30 -1,8 C -3,2 C 80 % 1010,9 hPa 0,0 l/m 0 min 0 min 0,0 UV-I 12 W/m 2,6 km/h (1 Bft)
02.04.2013 07:32 -1,8 C -3,2 C 80 % 1010,9 hPa 0,0 l/m 0 min 0 min 0,0 UV-I 12 W/m 7,7 km/h (2 Bft)
02.04.2013 07:34 -1,8 C -3,2 C 80 % 1010,9 hPa 0,0 l/m 0 min 0 min 0,0 UV-I 12 W/m 0,0 km/h (0 Bft)
02.04.2013 07:36 -1,8 C -3,2 C 80 % 1010,9 hPa 0,0 l/m 0 min 0 min 0,0 UV-I 14 W/m 2,6 km/h (1 Bft)
02.04.2013 07:38 -1,8 C -3,2 C 80 % 1010,9 hPa 0,0 l/m 0 min 0 min 0,0 UV-I 14 W/m 2,6 km/h (1 Bft)
02.04.2013 07:40 -1,8 C -3,2 C 80 % 1010,9 hPa 0,0 l/m 0 min 0 min 0,0 UV-I 16 W/m 7,7 km/h (2 Bft)
02.04.2013 07:42 -1,7 C -3,2 C 80 % 1011,0 hPa 0,0 l/m 0 min 0 min 0,0 UV-I 16 W/m 2,6 km/h (1 Bft)
02.04.2013 07:44 -1,7 C -2,7 C 80 % 1011,0 hPa 0,0 l/m 0 min 0 min 0,0 UV-I 18 W/m 12,9 km/h (3 Bft)
02.04.2013 07:46 -1,7 C -2,7 C 80 % 1011,0 hPa 0,0 l/m 0 min 0 min 0,0 UV-I 18 W/m 5,1 km/h (1 Bft)
02.04.2013 07:48 -1,7 C -2,7 C 80 % 1011,0 hPa 0,0 l/m 0 min 0 min 0,0 UV-I 19 W/m 7,7 km/h (2 Bft)
02.04.2013 07:50 -1,6 C -2,7 C 79 % 1011,0 hPa 0,0 l/m 0 min 0 min 0,0 UV-I 19 W/m 7,7 km/h (2 Bft)
02.04.2013 07:52 -1,6 C -2,7 C 80 % 1011,0 hPa 0,0 l/m 0 min 0 min 0,0 UV-I 21 W/m 15,4 km/h (3 Bft)
02.04.2013 07:54 -1,5 C -2,7 C 79 % 1011,0 hPa 0,0 l/m 0 min 0 min 0,0 UV-I 21 W/m 2,6 km/h (1 Bft)
02.04.2013 07:56 -1,4 C -2,7 C 79 % 1011,0 hPa 0,0 l/m 0 min 0 min 0,0 UV-I 21 W/m 7,7 km/h (2 Bft)
02.04.2013 07:58 -1,4 C -2,7 C 79 % 1011,0 hPa 0,0 l/m 0 min 0 min 0,0 UV-I 23 W/m 7,7 km/h (2 Bft)
02.04.2013 08:00 -1,4 C -2,7 C 79 % 1011,1 hPa 0,0 l/m 0 min 0 min 0,0 UV-I 23 W/m 2,6 km/h (1 Bft)
02.04.2013 08:02 -1,3 C -2,7 C 79 % 1011,1 hPa 0,0 l/m 0 min 0 min 0,0 UV-I 25 W/m 7,7 km/h (2 Bft)
02.04.2013 08:06 -1,2 C -2,1 C 78 % 1011,1 hPa 0,0 l/m 0 min 0 min 0,0 UV-I 25 W/m 10,3 km/h (2 Bft)
02.04.2013 08:08 -1,2 C -2,1 C 78 % 1011,1 hPa 0,0 l/m 0 min 0 min 0,0 UV-I 26 W/m 5,1 km/h (1 Bft)
02.04.2013 08:10 -1,2 C -2,1 C 78 % 1011,1 hPa 0,0 l/m 0 min 0 min 0,0 UV-I 26 W/m 0,0 km/h (0 Bft)
02.04.2013 08:12 -1,2 C -2,1 C 78 % 1011,1 hPa 0,0 l/m 0 min 0 min 0,0 UV-I 28 W/m 5,1 km/h (1 Bft)
02.04.2013 08:14 -1,1 C -2,1 C 78 % 1011,1 hPa 0,0 l/m 0 min 0 min 0,0 UV-I 28 W/m 7,7 km/h (2 Bft)
02.04.2013 08:16 -1,1 C -2,1 C 77 % 1011,1 hPa 0,0 l/m 0 min 0 min 0,0 UV-I 28 W/m 12,9 km/h (3 Bft)
02.04.2013 08:18 -1,0 C -2,1 C 77 % 1011,1 hPa 0,0 l/m 0 min 0 min 0,0 UV-I 30 W/m 5,1 km/h (1 Bft)
02.04.2013 08:20 -1,0 C -2,1 C 77 % 1011,1 hPa 0,0 l/m 0 min 0 min 0,0 UV-I 30 W/m 10,3 km/h (2 Bft)
02.04.2013 08:22 -0,9 C -2,1 C 77 % 1011,2 hPa 0,0 l/m 0 min 0 min 0,0 UV-I 32 W/m 10,3 km/h (2 Bft)
02.04.2013 08:24 -0,9 C -2,1 C 77 % 1011,2 hPa 0,0 l/m 0 min 0 min 0,0 UV-I 32 W/m 2,6 km/h (1 Bft)
02.04.2013 08:26 -0,8 C -2,1 C 77 % 1011,4 hPa 0,0 l/m 0 min 0 min 0,0 UV-I 32 W/m 10,3 km/h (2 Bft)
02.04.2013 08:28 -0,8 C -2,1 C 77 % 1011,4 hPa 0,0 l/m 0 min 0 min 0,0 UV-I 33 W/m 7,7 km/h (2 Bft)
02.04.2013 08:30 -0,8 C -1,6 C 76 % 1011,2 hPa 0,0 l/m 0 min 0 min 0,0 UV-I 33 W/m 7,7 km/h (2 Bft)
02.04.2013 08:32 -0,7 C -1,6 C 76 % 1011,2 hPa 0,0 l/m 0 min 0 min 0,0 UV-I 35 W/m 7,7 km/h (2 Bft)
02.04.2013 08:34 -0,7 C -1,6 C 76 % 1011,2 hPa 0,0 l/m 0 min 0 min 0,0 UV-I 35 W/m 5,1 km/h (1 Bft)
02.04.2013 08:36 -0,7 C -1,6 C 76 % 1011,2 hPa 0,0 l/m 0 min 0 min 0,0 UV-I 35 W/m 10,3 km/h (2 Bft)
02.04.2013 08:38 -0,6 C -1,6 C 75 % 1011,2 hPa 0,0 l/m 0 min 0 min 0,0 UV-I 37 W/m 5,1 km/h (1 Bft)
02.04.2013 08:40 -0,6 C -1,6 C 75 % 1011,2 hPa 0,0 l/m 0 min 0 min 0,0 UV-I 37 W/m 15,4 km/h (3 Bft)
02.04.2013 08:42 -0,4 C -1,6 C 75 % 1011,2 hPa 0,0 l/m 0 min 0 min 0,0 UV-I 37 W/m 10,3 km/h (2 Bft)
02.04.2013 08:44 -0,4 C -1,6 C 75 % 1011,4 hPa 0,0 l/m 0 min 0 min 0,0 UV-I 39 W/m 12,9 km/h (3 Bft)
02.04.2013 08:46 -0,4 C -1,6 C 75 % 1011,4 hPa 0,0 l/m 0 min 0 min 0,0 UV-I 39 W/m 10,3 km/h (2 Bft)
02.04.2013 08:48 -0,3 C -1,0 C 74 % 1011,2 hPa 0,0 l/m 0 min 0 min 0,0 UV-I 39 W/m 18,0 km/h (3 Bft)
02.04.2013 08:50 -0,3 C -1,0 C 74 % 1011,2 hPa 0,0 l/m 0 min 0 min 0,0 UV-I 46 W/m 12,9 km/h (3 Bft)
02.04.2013 08:52 -0,2 C -1,0 C 74 % 1011,2 hPa 0,0 l/m 0 min 0 min 0,0 UV-I 62 W/m 15,4 km/h (3 Bft)
02.04.2013 08:54 -0,2 C -1,0 C 74 % 1011,2 hPa 0,0 l/m 0 min 0 min 0,0 UV-I 79 W/m 10,3 km/h (2 Bft)
02.04.2013 08:56 -0,1 C -1,0 C 74 % 1011,2 hPa 0,0 l/m 0 min 0 min 0,0 UV-I 91 W/m 10,3 km/h (2 Bft)
02.04.2013 08:58 -0,1 C -1,0 C 74 % 1011,2 hPa 0,0 l/m 0 min 0 min 0,0 UV-I 116 W/m 7,7 km/h (2 Bft)
02.04.2013 09:00 0,0 C -1,0 C 73 % 1011,5 hPa 0,0 l/m 0 min 0 min 0,0 UV-I 144 W/m 12,9 km/h (3 Bft)
02.04.2013 09:02 0,1 C -1,0 C 73 % 1011,4 hPa 0,0 l/m 2 min 0 min 0,0 UV-I 171 W/m 18,0 km/h (3 Bft)
02.04.2013 09:06 0,3 C -1,0 C 73 % 1011,3 hPa 0,0 l/m 2 min 0 min 0,0 UV-I 193 W/m 10,3 km/h (2 Bft)
02.04.2013 09:08 0,4 C -0,4 C 72 % 1011,2 hPa 0,0 l/m 2 min 0 min 0,0 UV-I 209 W/m 12,9 km/h (3 Bft)
02.04.2013 09:10 0,4 C -0,4 C 72 % 1011,2 hPa 0,0 l/m 2 min 0 min 0,0 UV-I 220 W/m 10,3 km/h (2 Bft)
02.04.2013 09:12 0,6 C -0,4 C 72 % 1011,3 hPa 0,0 l/m 2 min 0 min 0,0 UV-I 229 W/m 7,7 km/h (2 Bft)
02.04.2013 09:14 0,6 C -0,4 C 72 % 1011,3 hPa 0,0 l/m 2 min 0 min 0,0 UV-I 237 W/m 10,3 km/h (2 Bft)
02.04.2013 09:16 0,7 C -0,4 C 72 % 1011,4 hPa 0,0 l/m 2 min 0 min 0,0 UV-I 239 W/m 7,7 km/h (2 Bft)
02.04.2013 09:18 0,7 C -0,4 C 71 % 1011,5 hPa 0,0 l/m 2 min 0 min 0,0 UV-I 243 W/m 2,6 km/h (1 Bft)
02.04.2013 09:20 0,8 C -0,4 C 71 % 1011,5 hPa 0,0 l/m 2 min 0 min 0,0 UV-I 251 W/m 10,3 km/h (2 Bft)
02.04.2013 09:22 0,9 C 0,1 C 71 % 1011,3 hPa 0,0 l/m 2 min 0 min 0,0 UV-I 257 W/m 7,7 km/h (2 Bft)
02.04.2013 09:24 1,0 C 0,1 C 71 % 1011,3 hPa 0,0 l/m 2 min 0 min 0,0 UV-I 260 W/m 10,3 km/h (2 Bft)
02.04.2013 09:26 1,1 C 0,7 C 70 % 1011,2 hPa 0,0 l/m 2 min 0 min 0,0 UV-I 267 W/m 23,2 km/h (4 Bft)
02.04.2013 09:28 1,2 C 0,7 C 69 % 1011,3 hPa 0,0 l/m 2 min 0 min 0,0 UV-I 271 W/m 15,4 km/h (3 Bft)
02.04.2013 09:30 1,3 C 1,2 C 69 % 1011,3 hPa 0,0 l/m 2 min 0 min 0,0 UV-I 276 W/m 15,4 km/h (3 Bft)
02.04.2013 09:32 1,3 C 2,3 C 69 % 1011,2 hPa 0,0 l/m 2 min 0 min 0,0 UV-I 283 W/m 25,7 km/h (4 Bft)
02.04.2013 09:34 1,3 C 2,3 C 69 % 1011,5 hPa 0,0 l/m 2 min 0 min 0,0 UV-I 288 W/m 7,7 km/h (2 Bft)
02.04.2013 09:36 1,4 C 2,3 C 69 % 1011,5 hPa 0,0 l/m 2 min 0 min 0,0 UV-I 292 W/m 20,6 km/h (4 Bft)
02.04.2013 09:38 1,6 C 1,2 C 67 % 1011,5 hPa 0,0 l/m 2 min 0 min 0,0 UV-I 297 W/m 20,6 km/h (4 Bft)
02.04.2013 09:40 1,6 C 1,2 C 67 % 1011,5 hPa 0,0 l/m 2 min 0 min 0,0 UV-I 302 W/m 7,7 km/h (2 Bft)
02.04.2013 09:42 1,7 C 1,2 C 67 % 1011,5 hPa 0,0 l/m 2 min 0 min 0,0 UV-I 308 W/m 12,9 km/h (3 Bft)
02.04.2013 09:44 1,7 C 1,2 C 67 % 1011,5 hPa 0,0 l/m 2 min 0 min 0,0 UV-I 311 W/m 10,3 km/h (2 Bft)
02.04.2013 09:46 1,8 C 1,2 C 67 % 1011,3 hPa 0,0 l/m 2 min 0 min 0,0 UV-I 316 W/m 18,0 km/h (3 Bft)
02.04.2013 09:48 2,0 C 1,2 C 66 % 1011,3 hPa 0,0 l/m 2 min 0 min 0,0 UV-I 322 W/m 23,2 km/h (4 Bft)
02.04.2013 09:50 2,1 C 1,2 C 66 % 1011,5 hPa 0,0 l/m 2 min 0 min 0,0 UV-I 329 W/m 18,0 km/h (3 Bft)
02.04.2013 09:52 2,1 C 1,2 C 66 % 1011,6 hPa 0,0 l/m 2 min 0 min 0,0 UV-I 332 W/m 30,9 km/h (5 Bft)
02.04.2013 09:54 2,2 C 1,2 C 65 % 1011,5 hPa 0,0 l/m 2 min 0 min 0,0 UV-I 336 W/m 12,9 km/h (3 Bft)
02.04.2013 09:56 2,3 C 1,2 C 65 % 1011,5 hPa 0,0 l/m 2 min 0 min 0,0 UV-I 343 W/m 23,2 km/h (4 Bft)
02.04.2013 09:58 2,3 C 1,2 C 65 % 1011,6 hPa 0,0 l/m 2 min 0 min 0,0 UV-I 348 W/m 12,9 km/h (3 Bft)
02.04.2013 10:00 2,4 C 1,2 C 65 % 1011,5 hPa 0,0 l/m 2 min 0 min 0,0 UV-I 352 W/m 12,9 km/h (3 Bft)
02.04.2013 10:02 2,5 C 1,2 C 65 % 1011,5 hPa 0,0 l/m 2 min 0 min 0,0 UV-I 359 W/m 12,9 km/h (3 Bft)
02.04.2013 10:06 2,7 C 1,8 C 64 % 1011,5 hPa 0,0 l/m 2 min 0 min 0,0 UV-I 369 W/m 28,3 km/h (4 Bft)
02.04.2013 10:08 2,8 C 1,8 C 64 % 1011,6 hPa 0,0 l/m 2 min 0 min 0,0 UV-I 374 W/m 7,7 km/h (2 Bft)
02.04.2013 10:10 2,9 C 1,8 C 64 % 1011,6 hPa 0,0 l/m 2 min 0 min 0,0 UV-I 380 W/m 7,7 km/h (2 Bft)
02.04.2013 10:12 2,9 C 1,8 C 64 % 1011,6 hPa 0,0 l/m 2 min 0 min 0,0 UV-I 387 W/m 5,1 km/h (1 Bft)
02.04.2013 10:14 3,1 C 2,3 C 63 % 1011,6 hPa 0,0 l/m 2 min 0 min 0,0 UV-I 392 W/m 10,3 km/h (2 Bft)
02.04.2013 10:16 3,2 C 2,3 C 62 % 1011,6 hPa 0,0 l/m 2 min 0 min 0,0 UV-I 397 W/m 20,6 km/h (4 Bft)
02.04.2013 10:18 3,3 C 2,3 C 61 % 1011,6 hPa 0,0 l/m 2 min 0 min 0,0 UV-I 403 W/m 25,7 km/h (4 Bft)
02.04.2013 10:20 3,3 C 2,3 C 60 % 1011,6 hPa 0,0 l/m 2 min 0 min 0,0 UV-I 406 W/m 28,3 km/h (4 Bft)
02.04.2013 10:22 3,4 C 2,3 C 61 % 1011,6 hPa 0,0 l/m 2 min 0 min 0,0 UV-I 406 W/m 28,3 km/h (4 Bft)
02.04.2013 10:24 3,5 C 2,3 C 60 % 1011,6 hPa 0,0 l/m 2 min 0 min 0,0 UV-I 418 W/m 12,9 km/h (3 Bft)
02.04.2013 10:26 3,5 C 2,3 C 60 % 1011,7 hPa 0,0 l/m 2 min 0 min 0,0 UV-I 422 W/m 25,7 km/h (4 Bft)
02.04.2013 10:28 3,6 C 2,3 C 60 % 1011,6 hPa 0,0 l/m 2 min 0 min 0,0 UV-I 422 W/m 10,3 km/h (2 Bft)
02.04.2013 10:30 3,6 C 2,9 C 60 % 1011,6 hPa 0,0 l/m 2 min 0 min 0,0 UV-I 434 W/m 15,4 km/h (3 Bft)
02.04.2013 10:32 3,6 C 3,4 C 60 % 1011,6 hPa 0,0 l/m 2 min 0 min 0,0 UV-I 436 W/m 12,9 km/h (3 Bft)
02.04.2013 10:34 3,7 C 3,4 C 59 % 1011,7 hPa 0,0 l/m 2 min 0 min 0,0 UV-I 439 W/m 15,4 km/h (3 Bft)
02.04.2013 10:36 3,7 C 3,4 C 59 % 1011,6 hPa 0,0 l/m 2 min 0 min 0,5 UV-I 448 W/m 15,4 km/h (3 Bft)
02.04.2013 10:38 3,8 C 3,4 C 59 % 1011,6 hPa 0,0 l/m 2 min 0 min 0,5 UV-I 450 W/m 15,4 km/h (3 Bft)
02.04.2013 10:40 3,8 C 3,4 C 59 % 1011,6 hPa 0,0 l/m 2 min 0 min 0,5 UV-I 455 W/m 12,9 km/h (3 Bft)
02.04.2013 10:42 3,8 C 3,4 C 59 % 1011,7 hPa 0,0 l/m 2 min 0 min 0,5 UV-I 462 W/m 20,6 km/h (4 Bft)
02.04.2013 10:44 3,9 C 4,0 C 59 % 1011,6 hPa 0,0 l/m 2 min 0 min 0,5 UV-I 464 W/m 23,2 km/h (4 Bft)
02.04.2013 10:46 4,0 C 4,0 C 58 % 1011,7 hPa 0,0 l/m 2 min 0 min 0,6 UV-I 471 W/m 15,4 km/h (3 Bft)
02.04.2013 10:48 4,1 C 4,0 C 58 % 1011,6 hPa 0,0 l/m 2 min 0 min 0,6 UV-I 476 W/m 25,7 km/h (4 Bft)
02.04.2013 10:50 4,1 C 4,0 C 58 % 1011,7 hPa 0,0 l/m 2 min 0 min 0,6 UV-I 478 W/m 15,4 km/h (3 Bft)
02.04.2013 10:52 4,2 C 4,0 C 58 % 1011,6 hPa 0,0 l/m 2 min 0 min 0,6 UV-I 483 W/m 23,2 km/h (4 Bft)
02.04.2013 10:54 4,3 C 4,0 C 58 % 1011,8 hPa 0,0 l/m 2 min 0 min 0,6 UV-I 490 W/m 15,4 km/h (3 Bft)
02.04.2013 10:56 4,3 C 4,0 C 58 % 1011,7 hPa 0,0 l/m 2 min 0 min 0,7 UV-I 490 W/m 15,4 km/h (3 Bft)
02.04.2013 10:58 4,4 C 4,0 C 57 % 1011,8 hPa 0,0 l/m 2 min 0 min 0,7 UV-I 487 W/m 15,4 km/h (3 Bft)
02.04.2013 11:00 4,4 C 4,0 C 57 % 1011,8 hPa 0,0 l/m 2 min 0 min 0,7 UV-I 499 W/m 15,4 km/h (3 Bft)
02.04.2013 11:02 4,4 C 4,0 C 57 % 1011,7 hPa 0,0 l/m 2 min 0 min 0,7 UV-I 506 W/m 12,9 km/h (3 Bft)
02.04.2013 11:06 4,7 C 4,6 C 57 % 1011,7 hPa 0,0 l/m 2 min 0 min 0,8 UV-I 508 W/m 7,7 km/h (2 Bft)
02.04.2013 11:08 4,7 C 4,6 C 57 % 1011,7 hPa 0,0 l/m 2 min 0 min 0,8 UV-I 513 W/m 18,0 km/h (3 Bft)
02.04.2013 11:10 4,8 C 4,6 C 57 % 1011,8 hPa 0,0 l/m 2 min 0 min 0,8 UV-I 520 W/m 12,9 km/h (3 Bft)
02.04.2013 11:12 4,8 C 4,6 C 56 % 1011,7 hPa 0,0 l/m 2 min 0 min 0,9 UV-I 524 W/m 18,0 km/h (3 Bft)
02.04.2013 11:14 4,9 C 4,6 C 56 % 1011,8 hPa 0,0 l/m 2 min 0 min 0,8 UV-I 526 W/m 15,4 km/h (3 Bft)
02.04.2013 11:16 5,0 C 4,6 C 56 % 1011,7 hPa 0,0 l/m 2 min 0 min 0,9 UV-I 533 W/m 7,7 km/h (2 Bft)
02.04.2013 11:18 5,1 C 4,6 C 55 % 1011,7 hPa 0,0 l/m 2 min 0 min 0,9 UV-I 540 W/m 15,4 km/h (3 Bft)
02.04.2013 11:20 5,2 C 4,6 C 55 % 1011,7 hPa 0,0 l/m 2 min 0 min 0,9 UV-I 540 W/m 10,3 km/h (2 Bft)
02.04.2013 11:22 5,2 C 5,1 C 55 % 1011,7 hPa 0,0 l/m 2 min 0 min 0,9 UV-I 540 W/m 15,4 km/h (3 Bft)
02.04.2013 11:24 5,3 C 5,1 C 54 % 1011,6 hPa 0,0 l/m 2 min 0 min 1,0 UV-I 554 W/m 18,0 km/h (3 Bft)
02.04.2013 11:26 5,3 C 5,1 C 53 % 1011,8 hPa 0,0 l/m 2 min 0 min 1,0 UV-I 555 W/m 15,4 km/h (3 Bft)
02.04.2013 11:28 5,4 C 5,1 C 53 % 1011,9 hPa 0,0 l/m 2 min 0 min 1,0 UV-I 555 W/m 10,3 km/h (2 Bft)
02.04.2013 11:30 5,4 C 5,1 C 53 % 1011,8 hPa 0,0 l/m 2 min 0 min 1,0 UV-I 563 W/m 12,9 km/h (3 Bft)
02.04.2013 11:32 5,4 C 4,6 C 54 % 1011,8 hPa 0,0 l/m 2 min 0 min 1,1 UV-I 564 W/m 36,0 km/h (5 Bft)
02.04.2013 11:34 5,4 C 5,1 C 54 % 1011,9 hPa 0,0 l/m 2 min 0 min 1,1 UV-I 561 W/m 12,9 km/h (3 Bft)
02.04.2013 11:36 5,4 C 5,1 C 54 % 1011,9 hPa 0,0 l/m 2 min 0 min 1,1 UV-I 568 W/m 18,0 km/h (3 Bft)
02.04.2013 11:38 5,5 C 5,1 C 54 % 1011,8 hPa 0,0 l/m 2 min 0 min 1,1 UV-I 573 W/m 10,3 km/h (2 Bft)
02.04.2013 11:40 5,6 C 5,1 C 54 % 1011,8 hPa 0,0 l/m 2 min 0 min 1,1 UV-I 577 W/m 18,0 km/h (3 Bft)
02.04.2013 11:42 5,6 C 5,1 C 54 % 1011,8 hPa 0,0 l/m 2 min 0 min 1,1 UV-I 571 W/m 10,3 km/h (2 Bft)
02.04.2013 11:44 5,7 C 5,1 C 53 % 1011,9 hPa 0,0 l/m 2 min 0 min 1,2 UV-I 580 W/m 25,7 km/h (4 Bft)
02.04.2013 11:46 5,7 C 5,1 C 53 % 1011,8 hPa 0,0 l/m 2 min 0 min 1,2 UV-I 582 W/m 7,7 km/h (2 Bft)
02.04.2013 11:48 5,8 C 5,7 C 54 % 1011,8 hPa 0,0 l/m 2 min 0 min 1,1 UV-I 577 W/m 12,9 km/h (3 Bft)
02.04.2013 11:50 5,8 C 5,1 C 53 % 1011,9 hPa 0,0 l/m 2 min 0 min 1,2 UV-I 585 W/m 18,0 km/h (3 Bft)
02.04.2013 11:52 5,8 C 5,1 C 53 % 1011,9 hPa 0,0 l/m 2 min 0 min 1,2 UV-I 596 W/m 18,0 km/h (3 Bft)
02.04.2013 11:54 5,9 C 5,7 C 53 % 1011,8 hPa 0,0 l/m 2 min 0 min 1,2 UV-I 596 W/m 18,0 km/h (3 Bft)
02.04.2013 11:56 5,9 C 5,7 C 52 % 1011,8 hPa 0,0 l/m 2 min 0 min 1,3 UV-I 603 W/m 12,9 km/h (3 Bft)
02.04.2013 11:58 5,8 C 5,1 C 52 % 1011,8 hPa 0,0 l/m 2 min 0 min 1,3 UV-I 610 W/m 18,0 km/h (3 Bft)
02.04.2013 12:00 5,8 C 5,1 C 52 % 1011,8 hPa 0,0 l/m 2 min 0 min 1,3 UV-I 612 W/m 20,6 km/h (4 Bft)
02.04.2013 12:02 5,8 C 5,7 C 53 % 1011,8 hPa 0,0 l/m 2 min 0 min 1,3 UV-I 603 W/m 12,9 km/h (3 Bft)
02.04.2013 12:06 5,9 C 5,7 C 53 % 1011,8 hPa 0,0 l/m 2 min 0 min 1,3 UV-I 605 W/m 15,4 km/h (3 Bft)
02.04.2013 12:08 5,9 C 5,7 C 52 % 1011,9 hPa 0,0 l/m 2 min 0 min 1,4 UV-I 613 W/m 10,3 km/h (2 Bft)
02.04.2013 12:10 6,1 C 6,2 C 53 % 1011,9 hPa 0,0 l/m 2 min 0 min 1,4 UV-I 622 W/m 12,9 km/h (3 Bft)
02.04.2013 12:12 6,1 C 5,7 C 52 % 1011,8 hPa 0,0 l/m 2 min 0 min 1,4 UV-I 619 W/m 12,9 km/h (3 Bft)
02.04.2013 12:14 6,2 C 5,7 C 51 % 1011,8 hPa 0,0 l/m 2 min 0 min 1,4 UV-I 619 W/m 18,0 km/h (3 Bft)
02.04.2013 12:16 6,2 C 6,2 C 52 % 1011,8 hPa 0,0 l/m 2 min 0 min 1,4 UV-I 622 W/m 20,6 km/h (4 Bft)
02.04.2013 12:18 6,2 C 5,7 C 50 % 1011,8 hPa 0,0 l/m 2 min 0 min 1,4 UV-I 624 W/m 38,6 km/h (5 Bft)
02.04.2013 12:20 6,2 C 5,7 C 51 % 1011,8 hPa 0,0 l/m 2 min 0 min 1,4 UV-I 629 W/m 15,4 km/h (3 Bft)
02.04.2013 12:22 6,2 C 6,2 C 51 % 1011,8 hPa 0,0 l/m 2 min 0 min 1,5 UV-I 635 W/m 18,0 km/h (3 Bft)
02.04.2013 12:24 6,2 C 6,2 C 50 % 1011,8 hPa 0,0 l/m 2 min 0 min 1,5 UV-I 640 W/m 28,3 km/h (4 Bft)
02.04.2013 12:26 6,2 C 6,2 C 51 % 1011,8 hPa 0,0 l/m 2 min 0 min 1,5 UV-I 640 W/m 15,4 km/h (3 Bft)
02.04.2013 12:28 6,3 C 6,2 C 50 % 1011,8 hPa 0,0 l/m 2 min 0 min 1,5 UV-I 647 W/m 20,6 km/h (4 Bft)
02.04.2013 12:30 6,3 C 6,2 C 50 % 1011,8 hPa 0,0 l/m 2 min 0 min 1,5 UV-I 638 W/m 12,9 km/h (3 Bft)
02.04.2013 12:32 6,3 C 6,2 C 51 % 1011,8 hPa 0,0 l/m 2 min 0 min 1,5 UV-I 649 W/m 12,9 km/h (3 Bft)
02.04.2013 12:34 6,4 C 6,2 C 51 % 1011,7 hPa 0,0 l/m 2 min 0 min 1,6 UV-I 654 W/m 25,7 km/h (4 Bft)
02.04.2013 12:36 6,6 C 6,8 C 52 % 1011,8 hPa 0,0 l/m 2 min 0 min 1,6 UV-I 654 W/m 15,4 km/h (3 Bft)
02.04.2013 12:38 6,7 C 6,8 C 51 % 1011,7 hPa 0,0 l/m 2 min 0 min 1,6 UV-I 654 W/m 15,4 km/h (3 Bft)
02.04.2013 12:40 6,7 C 6,8 C 51 % 1011,7 hPa 0,0 l/m 2 min 0 min 1,6 UV-I 656 W/m 10,3 km/h (2 Bft)
02.04.2013 12:42 6,8 C 6,8 C 50 % 1011,7 hPa 0,0 l/m 2 min 0 min 1,6 UV-I 654 W/m 12,9 km/h (3 Bft)
02.04.2013 12:44 6,9 C 6,8 C 50 % 1011,7 hPa 0,0 l/m 2 min 0 min 1,6 UV-I 657 W/m 18,0 km/h (3 Bft)
02.04.2013 12:46 7,0 C 6,8 C 49 % 1011,7 hPa 0,0 l/m 2 min 0 min 1,6 UV-I 654 W/m 18,0 km/h (3 Bft)
02.04.2013 12:48 7,1 C 6,8 C 49 % 1011,8 hPa 0,0 l/m 2 min 0 min 1,6 UV-I 656 W/m 15,4 km/h (3 Bft)
02.04.2013 12:50 7,1 C 6,8 C 49 % 1011,8 hPa 0,0 l/m 2 min 0 min 1,6 UV-I 654 W/m 15,4 km/h (3 Bft)
02.04.2013 12:52 7,1 C 7,3 C 50 % 1011,8 hPa 0,0 l/m 2 min 0 min 1,6 UV-I 663 W/m 20,6 km/h (4 Bft)
02.04.2013 12:54 7,1 C 6,8 C 49 % 1011,8 hPa 0,0 l/m 2 min 0 min 1,6 UV-I 668 W/m 25,7 km/h (4 Bft)
02.04.2013 12:56 7,1 C 6,8 C 49 % 1011,8 hPa 0,0 l/m 2 min 0 min 1,6 UV-I 666 W/m 18,0 km/h (3 Bft)
02.04.2013 12:58 7,1 C 6,8 C 50 % 1011,8 hPa 0,0 l/m 2 min 0 min 1,7 UV-I 664 W/m 15,4 km/h (3 Bft)
02.04.2013 13:00 7,0 C 7,3 C 49 % 1011,7 hPa 0,0 l/m 2 min 0 min 1,7 UV-I 677 W/m 15,4 km/h (3 Bft)
02.04.2013 13:02 7,0 C 7,9 C 49 % 1011,6 hPa 0,0 l/m 2 min 0 min 1,7 UV-I 673 W/m 20,6 km/h (4 Bft)
02.04.2013 13:06 7,1 C 7,9 C 50 % 1011,7 hPa 0,0 l/m 2 min 0 min 1,6 UV-I 654 W/m 15,4 km/h (3 Bft)
02.04.2013 13:08 7,2 C 7,9 C 50 % 1011,7 hPa 0,0 l/m 2 min 0 min 1,7 UV-I 679 W/m 23,2 km/h (4 Bft)
02.04.2013 13:10 7,2 C 7,3 C 48 % 1011,6 hPa 0,0 l/m 2 min 0 min 1,7 UV-I 668 W/m 28,3 km/h (4 Bft)
02.04.2013 13:12 7,2 C 7,9 C 50 % 1011,6 hPa 0,0 l/m 2 min 0 min 1,7 UV-I 670 W/m 28,3 km/h (4 Bft)
02.04.2013 13:14 7,3 C 7,9 C 50 % 1011,6 hPa 0,0 l/m 2 min 0 min 1,7 UV-I 675 W/m 15,4 km/h (3 Bft)
02.04.2013 13:16 7,4 C 7,3 C 49 % 1011,6 hPa 0,0 l/m 2 min 0 min 1,7 UV-I 673 W/m 18,0 km/h (3 Bft)
02.04.2013 13:18 7,4 C 7,3 C 49 % 1011,6 hPa 0,0 l/m 2 min 0 min 1,7 UV-I 680 W/m 12,9 km/h (3 Bft)
02.04.2013 13:20 7,4 C 7,3 C 49 % 1011,7 hPa 0,0 l/m 2 min 0 min 1,7 UV-I 675 W/m 23,2 km/h (4 Bft)
02.04.2013 13:22 7,4 C 7,3 C 49 % 1011,6 hPa 0,0 l/m 2 min 0 min 1,7 UV-I 680 W/m 10,3 km/h (2 Bft)
02.04.2013 13:24 7,5 C 7,3 C 50 % 1011,5 hPa 0,0 l/m 2 min 0 min 1,7 UV-I 668 W/m 18,0 km/h (3 Bft)
02.04.2013 13:26 7,6 C 7,3 C 49 % 1011,5 hPa 0,0 l/m 2 min 0 min 1,7 UV-I 596 W/m 25,7 km/h (4 Bft)
02.04.2013 13:28 7,5 C 6,8 C 48 % 1011,5 hPa 0,0 l/m 2 min 0 min 1,7 UV-I 680 W/m 30,9 km/h (5 Bft)
02.04.2013 13:30 7,5 C 7,3 C 49 % 1011,5 hPa 0,0 l/m 2 min 0 min 1,7 UV-I 682 W/m 18,0 km/h (3 Bft)
02.04.2013 13:32 7,6 C 7,3 C 49 % 1011,6 hPa 0,0 l/m 2 min 0 min 1,7 UV-I 679 W/m 20,6 km/h (4 Bft)
02.04.2013 13:34 7,7 C 7,3 C 49 % 1011,6 hPa 0,0 l/m 2 min 0 min 1,7 UV-I 677 W/m 10,3 km/h (2 Bft)
02.04.2013 13:36 7,7 C 7,3 C 49 % 1011,6 hPa 0,0 l/m 2 min 0 min 1,7 UV-I 671 W/m 10,3 km/h (2 Bft)
02.04.2013 13:38 7,8 C 7,3 C 49 % 1011,5 hPa 0,0 l/m 2 min 0 min 1,7 UV-I 680 W/m 18,0 km/h (3 Bft)
02.04.2013 13:40 7,8 C 6,8 C 47 % 1011,5 hPa 0,0 l/m 2 min 0 min 1,7 UV-I 680 W/m 36,0 km/h (5 Bft)
02.04.2013 13:42 7,7 C 6,8 C 48 % 1011,5 hPa 0,0 l/m 2 min 0 min 1,7 UV-I 682 W/m 18,0 km/h (3 Bft)
02.04.2013 13:44 7,7 C 7,3 C 49 % 1011,5 hPa 0,0 l/m 2 min 0 min 1,7 UV-I 684 W/m 10,3 km/h (2 Bft)
02.04.2013 13:46 7,8 C 7,3 C 47 % 1011,6 hPa 0,0 l/m 2 min 0 min 1,7 UV-I 682 W/m 25,7 km/h (4 Bft)
02.04.2013 13:48 7,8 C 7,3 C 48 % 1011,6 hPa 0,0 l/m 2 min 0 min 1,7 UV-I 679 W/m 15,4 km/h (3 Bft)
02.04.2013 13:50 7,8 C 7,3 C 48 % 1011,5 hPa 0,0 l/m 2 min 0 min 1,7 UV-I 686 W/m 15,4 km/h (3 Bft)
02.04.2013 13:52 7,9 C 7,3 C 49 % 1011,4 hPa 0,0 l/m 2 min 0 min 1,7 UV-I 682 W/m 15,4 km/h (3 Bft)
02.04.2013 13:54 7,9 C 7,3 C 48 % 1011,5 hPa 0,0 l/m 2 min 0 min 1,7 UV-I 677 W/m 20,6 km/h (4 Bft)
02.04.2013 13:56 7,9 C 6,8 C 47 % 1011,4 hPa 0,0 l/m 2 min 0 min 1,7 UV-I 689 W/m 20,6 km/h (4 Bft)
02.04.2013 13:58 7,8 C 6,8 C 47 % 1011,5 hPa 0,0 l/m 2 min 0 min 1,7 UV-I 684 W/m 43,8 km/h (6 Bft)
02.04.2013 14:00 7,8 C 7,3 C 48 % 1011,4 hPa 0,0 l/m 2 min 0 min 1,7 UV-I 684 W/m 18,0 km/h (3 Bft)
02.04.2013 14:02 7,8 C 7,3 C 49 % 1011,4 hPa 0,0 l/m 2 min 0 min 1,6 UV-I 673 W/m 10,3 km/h (2 Bft)
02.04.2013 14:06 7,8 C 7,3 C 48 % 1011,4 hPa 0,0 l/m 2 min 0 min 1,6 UV-I 670 W/m 18,0 km/h (3 Bft)
02.04.2013 14:08 7,9 C 7,9 C 48 % 1011,4 hPa 0,0 l/m 2 min 0 min 1,7 UV-I 686 W/m 28,3 km/h (4 Bft)
02.04.2013 14:10 7,9 C 7,3 C 48 % 1011,4 hPa 0,0 l/m 2 min 0 min 1,7 UV-I 679 W/m 18,0 km/h (3 Bft)
02.04.2013 14:12 7,9 C 7,3 C 47 % 1011,4 hPa 0,0 l/m 2 min 0 min 1,7 UV-I 684 W/m 25,7 km/h (4 Bft)
02.04.2013 14:14 7,9 C 7,3 C 47 % 1011,4 hPa 0,0 l/m 2 min 0 min 1,7 UV-I 675 W/m 18,0 km/h (3 Bft)
02.04.2013 14:16 8,0 C 7,3 C 48 % 1011,3 hPa 0,0 l/m 2 min 0 min 1,7 UV-I 680 W/m 10,3 km/h (2 Bft)
02.04.2013 14:18 8,1 C 7,9 C 48 % 1011,3 hPa 0,0 l/m 2 min 0 min 1,6 UV-I 675 W/m 18,0 km/h (3 Bft)
02.04.2013 14:20 8,2 C 7,3 C 47 % 1011,4 hPa 0,0 l/m 2 min 0 min 1,7 UV-I 675 W/m 18,0 km/h (3 Bft)
02.04.2013 14:22 8,1 C 7,3 C 48 % 1011,4 hPa 0,0 l/m 2 min 0 min 1,6 UV-I 670 W/m 18,0 km/h (3 Bft)
02.04.2013 14:24 8,2 C 7,9 C 48 % 1011,4 hPa 0,0 l/m 2 min 0 min 1,6 UV-I 677 W/m 10,3 km/h (2 Bft)
02.04.2013 14:26 8,2 C 7,9 C 47 % 1011,3 hPa 0,0 l/m 2 min 0 min 1,6 UV-I 671 W/m 20,6 km/h (4 Bft)
02.04.2013 14:28 8,3 C 7,9 C 47 % 1011,3 hPa 0,0 l/m 2 min 0 min 1,6 UV-I 675 W/m 20,6 km/h (4 Bft)
02.04.2013 14:30 8,3 C 7,9 C 48 % 1011,4 hPa 0,0 l/m 2 min 0 min 1,6 UV-I 670 W/m 15,4 km/h (3 Bft)
02.04.2013 14:32 8,3 C 7,9 C 46 % 1011,3 hPa 0,0 l/m 2 min 0 min 1,6 UV-I 668 W/m 28,3 km/h (4 Bft)
02.04.2013 14:34 8,3 C 7,9 C 48 % 1011,3 hPa 0,0 l/m 2 min 0 min 1,6 UV-I 673 W/m 12,9 km/h (3 Bft)
02.04.2013 14:36 8,4 C 7,9 C 47 % 1011,3 hPa 0,0 l/m 2 min 0 min 1,5 UV-I 666 W/m 15,4 km/h (3 Bft)
02.04.2013 14:38 8,4 C 8,4 C 47 % 1011,4 hPa 0,0 l/m 2 min 0 min 1,6 UV-I 668 W/m 15,4 km/h (3 Bft)
02.04.2013 14:40 8,4 C 7,9 C 45 % 1011,4 hPa 0,0 l/m 2 min 0 min 1,6 UV-I 673 W/m 23,2 km/h (4 Bft)
02.04.2013 14:42 8,4 C 7,9 C 46 % 1011,4 hPa 0,0 l/m 2 min 0 min 1,6 UV-I 666 W/m 20,6 km/h (4 Bft)
02.04.2013 14:44 8,5 C 8,4 C 45 % 1011,3 hPa 0,0 l/m 2 min 0 min 1,5 UV-I 661 W/m 10,3 km/h (2 Bft)
02.04.2013 14:46 8,6 C 8,4 C 45 % 1011,4 hPa 0,0 l/m 2 min 0 min 1,5 UV-I 666 W/m 23,2 km/h (4 Bft)
02.04.2013 14:48 8,6 C 8,4 C 46 % 1011,3 hPa 0,0 l/m 2 min 0 min 1,5 UV-I 659 W/m 10,3 km/h (2 Bft)
02.04.2013 14:50 8,7 C 8,4 C 45 % 1011,3 hPa 0,0 l/m 2 min 0 min 1,5 UV-I 668 W/m 23,2 km/h (4 Bft)
02.04.2013 14:52 8,7 C 8,4 C 44 % 1011,4 hPa 0,0 l/m 2 min 0 min 1,5 UV-I 663 W/m 30,9 km/h (5 Bft)
02.04.2013 14:54 8,7 C 7,9 C 44 % 1011,3 hPa 0,0 l/m 2 min 0 min 1,5 UV-I 650 W/m 15,4 km/h (3 Bft)
02.04.2013 14:56 8,7 C 7,9 C 45 % 1011,3 hPa 0,0 l/m 2 min 0 min 1,5 UV-I 666 W/m 20,6 km/h (4 Bft)
02.04.2013 14:58 8,7 C 7,9 C 45 % 1011,3 hPa 0,0 l/m 2 min 0 min 1,5 UV-I 654 W/m 15,4 km/h (3 Bft)
02.04.2013 15:00 8,7 C 8,4 C 45 % 1011,2 hPa 0,0 l/m 2 min 0 min 1,4 UV-I 652 W/m 15,4 km/h (3 Bft)
02.04.2013 15:02 8,7 C 7,9 C 45 % 1011,3 hPa 0,0 l/m 2 min 0 min 1,4 UV-I 654 W/m 23,2 km/h (4 Bft)
02.04.2013 15:06 8,7 C 7,9 C 44 % 1011,3 hPa 0,0 l/m 2 min 0 min 1,4 UV-I 649 W/m 18,0 km/h (3 Bft)
02.04.2013 15:08 8,7 C 7,9 C 44 % 1011,3 hPa 0,0 l/m 2 min 0 min 1,4 UV-I 647 W/m 20,6 km/h (4 Bft)
02.04.2013 15:10 8,7 C 7,9 C 44 % 1011,2 hPa 0,0 l/m 2 min 0 min 1,4 UV-I 643 W/m 23,2 km/h (4 Bft)
02.04.2013 15:12 8,7 C 7,9 C 45 % 1011,3 hPa 0,0 l/m 2 min 0 min 1,3 UV-I 645 W/m 20,6 km/h (4 Bft)
02.04.2013 15:14 8,7 C 7,9 C 44 % 1011,2 hPa 0,0 l/m 2 min 0 min 1,3 UV-I 640 W/m 18,0 km/h (3 Bft)
02.04.2013 15:16 8,7 C 7,9 C 45 % 1011,2 hPa 0,0 l/m 2 min 0 min 1,3 UV-I 633 W/m 15,4 km/h (3 Bft)
02.04.2013 15:18 8,8 C 7,9 C 45 % 1011,1 hPa 0,0 l/m 2 min 0 min 1,3 UV-I 631 W/m 15,4 km/h (3 Bft)
02.04.2013 15:20 8,8 C 8,4 C 45 % 1011,2 hPa 0,0 l/m 2 min 0 min 1,3 UV-I 624 W/m 15,4 km/h (3 Bft)
02.04.2013 15:22 9,0 C 9,0 C 45 % 1011,1 hPa 0,0 l/m 2 min 0 min 1,3 UV-I 635 W/m 18,0 km/h (3 Bft)
02.04.2013 15:24 9,1 C 9,0 C 45 % 1011,2 hPa 0,0 l/m 2 min 0 min 1,3 UV-I 628 W/m 18,0 km/h (3 Bft)
02.04.2013 15:26 9,2 C 8,4 C 44 % 1011,2 hPa 0,0 l/m 2 min 0 min 1,3 UV-I 624 W/m 23,2 km/h (4 Bft)
02.04.2013 15:28 9,2 C 8,4 C 43 % 1011,1 hPa 0,0 l/m 2 min 0 min 1,2 UV-I 615 W/m 18,0 km/h (3 Bft)
02.04.2013 15:30 9,2 C 9,0 C 44 % 1011,1 hPa 0,0 l/m 2 min 0 min 1,2 UV-I 619 W/m 15,4 km/h (3 Bft)
02.04.2013 15:32 9,2 C 8,4 C 43 % 1011,1 hPa 0,0 l/m 2 min 0 min 1,2 UV-I 612 W/m 15,4 km/h (3 Bft)
02.04.2013 15:34 9,2 C 9,0 C 44 % 1011,1 hPa 0,0 l/m 2 min 0 min 1,2 UV-I 615 W/m 12,9 km/h (3 Bft)
02.04.2013 15:36 9,3 C 9,0 C 45 % 1011,1 hPa 0,0 l/m 2 min 0 min 1,2 UV-I 610 W/m 15,4 km/h (3 Bft)
02.04.2013 15:38 9,4 C 9,0 C 42 % 1011,1 hPa 0,0 l/m 2 min 0 min 1,1 UV-I 605 W/m 23,2 km/h (4 Bft)
02.04.2013 15:40 9,3 C 8,4 C 41 % 1011,2 hPa 0,0 l/m 2 min 0 min 1,1 UV-I 605 W/m 30,9 km/h (5 Bft)
02.04.2013 15:42 9,1 C 8,4 C 42 % 1011,1 hPa 0,0 l/m 2 min 0 min 1,1 UV-I 610 W/m 25,7 km/h (4 Bft)
02.04.2013 15:44 8,9 C 7,9 C 42 % 1011,1 hPa 0,0 l/m 2 min 0 min 1,1 UV-I 599 W/m 30,9 km/h (5 Bft)
02.04.2013 15:46 8,7 C 7,9 C 43 % 1011,1 hPa 0,0 l/m 2 min 0 min 1,1 UV-I 598 W/m 25,7 km/h (4 Bft)
02.04.2013 15:48 8,6 C 7,9 C 42 % 1011,0 hPa 0,0 l/m 2 min 0 min 1,1 UV-I 596 W/m 41,2 km/h (6 Bft)
02.04.2013 15:50 8,4 C 7,3 C 43 % 1011,1 hPa 0,0 l/m 2 min 0 min 1,1 UV-I 598 W/m 33,5 km/h (5 Bft)
02.04.2013 15:52 8,3 C 7,9 C 44 % 1011,2 hPa 0,0 l/m 2 min 0 min 1,0 UV-I 587 W/m 30,9 km/h (5 Bft)
02.04.2013 15:54 8,3 C 8,4 C 45 % 1011,2 hPa 0,0 l/m 2 min 0 min 1,0 UV-I 584 W/m 10,3 km/h (2 Bft)
02.04.2013 15:56 8,4 C 8,4 C 45 % 1011,1 hPa 0,0 l/m 2 min 0 min 1,0 UV-I 584 W/m 12,9 km/h (3 Bft)
02.04.2013 15:58 8,6 C 8,4 C 45 % 1011,0 hPa 0,0 l/m 2 min 0 min 1,0 UV-I 580 W/m 15,4 km/h (3 Bft)
02.04.2013 16:00 8,7 C 9,0 C 45 % 1011,0 hPa 0,0 l/m 2 min 0 min 0,9 UV-I 568 W/m 20,6 km/h (4 Bft)
02.04.2013 16:02 8,8 C 9,0 C 44 % 1011,1 hPa 0,0 l/m 2 min 0 min 0,9 UV-I 570 W/m 12,9 km/h (3 Bft)
02.04.2013 16:06 9,0 C 9,0 C 44 % 1010,9 hPa 0,0 l/m 2 min 0 min 0,9 UV-I 559 W/m 18,0 km/h (3 Bft)
02.04.2013 16:08 9,1 C 9,0 C 43 % 1011,1 hPa 0,0 l/m 2 min 0 min 0,8 UV-I 550 W/m 18,0 km/h (3 Bft)
02.04.2013 16:10 9,1 C 9,0 C 43 % 1011,0 hPa 0,0 l/m 2 min 0 min 0,8 UV-I 550 W/m 10,3 km/h (2 Bft)
02.04.2013 16:12 9,2 C 9,0 C 44 % 1011,1 hPa 0,0 l/m 2 min 0 min 0,8 UV-I 555 W/m 15,4 km/h (3 Bft)
02.04.2013 16:14 9,2 C 9,0 C 43 % 1011,0 hPa 0,0 l/m 2 min 0 min 0,8 UV-I 548 W/m 20,6 km/h (4 Bft)
02.04.2013 16:16 9,2 C 9,0 C 43 % 1011,1 hPa 0,0 l/m 2 min 0 min 0,8 UV-I 543 W/m 25,7 km/h (4 Bft)
02.04.2013 16:18 9,2 C 9,0 C 43 % 1010,9 hPa 0,0 l/m 2 min 0 min 0,8 UV-I 538 W/m 18,0 km/h (3 Bft)
02.04.2013 16:20 9,2 C 9,0 C 43 % 1011,0 hPa 0,0 l/m 2 min 0 min 0,7 UV-I 538 W/m 15,4 km/h (3 Bft)
02.04.2013 16:22 9,2 C 10,1 C 44 % 1010,9 hPa 0,0 l/m 2 min 0 min 0,7 UV-I 533 W/m 15,4 km/h (3 Bft)
02.04.2013 16:24 9,2 C 11,2 C 43 % 1011,0 hPa 0,0 l/m 2 min 0 min 0,7 UV-I 527 W/m 18,0 km/h (3 Bft)
02.04.2013 16:26 9,2 C 11,8 C 44 % 1010,9 hPa 0,0 l/m 2 min 0 min 0,7 UV-I 524 W/m 18,0 km/h (3 Bft)
02.04.2013 16:28 9,3 C 12,9 C 44 % 1010,9 hPa 0,0 l/m 2 min 0 min 0,7 UV-I 520 W/m 18,0 km/h (3 Bft)
02.04.2013 16:30 9,3 C 12,9 C 44 % 1011,0 hPa 0,0 l/m 2 min 0 min 0,6 UV-I 519 W/m 36,0 km/h (5 Bft)
02.04.2013 16:32 9,3 C 12,9 C 44 % 1011,0 hPa 0,0 l/m 2 min 0 min 0,6 UV-I 512 W/m 30,9 km/h (5 Bft)
02.04.2013 16:34 9,3 C 13,4 C 44 % 1011,0 hPa 0,0 l/m 2 min 0 min 0,6 UV-I 510 W/m 15,4 km/h (3 Bft)
02.04.2013 16:36 9,3 C 13,4 C 42 % 1010,9 hPa 0,0 l/m 2 min 0 min 0,6 UV-I 506 W/m 18,0 km/h (3 Bft)
02.04.2013 16:38 9,4 C 13,4 C 43 % 1010,9 hPa 0,0 l/m 2 min 0 min 0,6 UV-I 504 W/m 15,4 km/h (3 Bft)
02.04.2013 16:40 9,5 C 13,4 C 43 % 1011,0 hPa 0,0 l/m 2 min 0 min 0,5 UV-I 496 W/m 20,6 km/h (4 Bft)
02.04.2013 16:42 9,5 C 13,4 C 42 % 1010,9 hPa 0,0 l/m 2 min 0 min 0,5 UV-I 496 W/m 15,4 km/h (3 Bft)
02.04.2013 16:44 9,4 C 12,9 C 41 % 1010,9 hPa 0,0 l/m 2 min 0 min 0,5 UV-I 490 W/m 23,2 km/h (4 Bft)
02.04.2013 16:46 9,3 C 13,4 C 41 % 1010,9 hPa 0,0 l/m 2 min 0 min 0,5 UV-I 487 W/m 18,0 km/h (3 Bft)
02.04.2013 16:48 9,3 C 13,4 C 41 % 1011,0 hPa 0,0 l/m 2 min 0 min 0,5 UV-I 482 W/m 20,6 km/h (4 Bft)
02.04.2013 16:50 9,3 C 11,8 C 41 % 1010,9 hPa 0,0 l/m 2 min 0 min 0,0 UV-I 476 W/m 15,4 km/h (3 Bft)
02.04.2013 16:52 9,2 C 11,2 C 41 % 1010,9 hPa 0,0 l/m 2 min 0 min 0,0 UV-I 466 W/m 23,2 km/h (4 Bft)
02.04.2013 16:54 9,2 C 10,1 C 40 % 1010,9 hPa 0,0 l/m 2 min 0 min 0,0 UV-I 468 W/m 33,5 km/h (5 Bft)
02.04.2013 16:56 9,0 C 10,1 C 41 % 1010,9 hPa 0,0 l/m 2 min 0 min 0,0 UV-I 468 W/m 28,3 km/h (4 Bft)
02.04.2013 16:58 8,9 C 9,6 C 40 % 1010,7 hPa 0,0 l/m 2 min 0 min 0,0 UV-I 464 W/m 23,2 km/h (4 Bft)
02.04.2013 17:00 8,9 C 9,6 C 42 % 1010,7 hPa 0,0 l/m 2 min 0 min 0,0 UV-I 459 W/m 15,4 km/h (3 Bft)
02.04.2013 17:02 8,9 C 9,6 C 41 % 1010,9 hPa 0,0 l/m 2 min 0 min 0,0 UV-I 455 W/m 25,7 km/h (4 Bft)
02.04.2013 17:05 8,9 C 9,6 C 42 % 1010,7 hPa 0,0 l/m 2 min 0 min 0,0 UV-I 446 W/m 28,3 km/h (4 Bft)
02.04.2013 17:06 9,0 C 9,6 C 41 % 1010,7 hPa 0,0 l/m 1 min 0 min 0,0 UV-I 446 W/m 15,4 km/h (3 Bft)
02.04.2013 17:08 9,1 C 9,6 C 41 % 1010,7 hPa 0,0 l/m 2 min 0 min 0,0 UV-I 439 W/m 12,9 km/h (3 Bft)
02.04.2013 17:10 9,1 C 9,0 C 40 % 1010,8 hPa 0,0 l/m 2 min 0 min 0,0 UV-I 432 W/m 23,2 km/h (4 Bft)
02.04.2013 17:12 9,1 C 9,0 C 41 % 1010,8 hPa 0,0 l/m 2 min 0 min 0,0 UV-I 431 W/m 12,9 km/h (3 Bft)
02.04.2013 17:14 9,2 C 9,6 C 40 % 1010,9 hPa 0,0 l/m 2 min 0 min 0,0 UV-I 425 W/m 20,6 km/h (4 Bft)
02.04.2013 17:16 9,1 C 9,0 C 40 % 1010,7 hPa 0,0 l/m 2 min 0 min 0,0 UV-I 422 W/m 18,0 km/h (3 Bft)
02.04.2013 17:18 9,1 C 9,0 C 41 % 1010,8 hPa 0,0 l/m 2 min 0 min 0,0 UV-I 418 W/m 12,9 km/h (3 Bft)
02.04.2013 17:20 9,1 C 9,0 C 41 % 1010,9 hPa 0,0 l/m 2 min 0 min 0,0 UV-I 411 W/m 20,6 km/h (4 Bft)
02.04.2013 17:22 9,1 C 9,0 C 41 % 1010,7 hPa 0,0 l/m 2 min 0 min 0,0 UV-I 406 W/m 23,2 km/h (4 Bft)
02.04.2013 17:24 9,1 C 9,0 C 42 % 1010,7 hPa 0,0 l/m 2 min 0 min 0,0 UV-I 401 W/m 10,3 km/h (2 Bft)
02.04.2013 17:26 9,2 C 9,6 C 42 % 1010,9 hPa 0,0 l/m 2 min 0 min 0,0 UV-I 397 W/m 10,3 km/h (2 Bft)
02.04.2013 17:28 9,3 C 9,0 C 41 % 1010,8 hPa 0,0 l/m 2 min 0 min 0,0 UV-I 390 W/m 25,7 km/h (4 Bft)
02.04.2013 17:30 9,3 C 9,0 C 40 % 1010,7 hPa 0,0 l/m 2 min 0 min 0,0 UV-I 383 W/m 15,4 km/h (3 Bft)
02.04.2013 17:32 9,3 C 8,4 C 40 % 1010,8 hPa 0,0 l/m 2 min 0 min 0,0 UV-I 380 W/m 15,4 km/h (3 Bft)
02.04.2013 17:34 9,2 C 8,4 C 40 % 1010,9 hPa 0,0 l/m 2 min 0 min 0,0 UV-I 378 W/m 23,2 km/h (4 Bft)
02.04.2013 17:36 9,2 C 8,4 C 40 % 1011,0 hPa 0,0 l/m 2 min 0 min 0,0 UV-I 369 W/m 33,5 km/h (5 Bft)
02.04.2013 17:38 9,1 C 8,4 C 41 % 1011,0 hPa 0,0 l/m 2 min 0 min 0,0 UV-I 362 W/m 18,0 km/h (3 Bft)
02.04.2013 17:40 9,1 C 8,4 C 41 % 1010,9 hPa 0,0 l/m 2 min 0 min 0,0 UV-I 359 W/m 10,3 km/h (2 Bft)
02.04.2013 17:42 9,1 C 8,4 C 41 % 1010,9 hPa 0,0 l/m 2 min 0 min 0,0 UV-I 355 W/m 12,9 km/h (3 Bft)
02.04.2013 17:44 9,1 C 8,4 C 41 % 1010,9 hPa 0,0 l/m 2 min 0 min 0,0 UV-I 350 W/m 15,4 km/h (3 Bft)
02.04.2013 17:46 9,1 C 8,4 C 41 % 1011,0 hPa 0,0 l/m 2 min 0 min 0,0 UV-I 346 W/m 28,3 km/h (4 Bft)
02.04.2013 17:48 9,0 C 8,4 C 41 % 1011,0 hPa 0,0 l/m 2 min 0 min 0,0 UV-I 341 W/m 25,7 km/h (4 Bft)
02.04.2013 17:50 9,0 C 8,4 C 42 % 1010,9 hPa 0,0 l/m 2 min 0 min 0,0 UV-I 332 W/m 10,3 km/h (2 Bft)
02.04.2013 17:52 9,0 C 8,4 C 42 % 1010,9 hPa 0,0 l/m 2 min 0 min 0,0 UV-I 329 W/m 18,0 km/h (3 Bft)
02.04.2013 17:54 9,0 C 8,4 C 42 % 1011,0 hPa 0,0 l/m 2 min 0 min 0,0 UV-I 323 W/m 10,3 km/h (2 Bft)
02.04.2013 17:56 8,9 C 8,4 C 41 % 1011,0 hPa 0,0 l/m 2 min 0 min 0,0 UV-I 315 W/m 12,9 km/h (3 Bft)
02.04.2013 17:58 8,9 C 7,9 C 41 % 1011,1 hPa 0,0 l/m 2 min 0 min 0,0 UV-I 309 W/m 18,0 km/h (3 Bft)
02.04.2013 18:00 8,9 C 7,9 C 41 % 1011,0 hPa 0,0 l/m 2 min 0 min 0,0 UV-I 304 W/m 25,7 km/h (4 Bft)
02.04.2013 18:02 8,9 C 7,9 C 42 % 1011,1 hPa 0,0 l/m 2 min 0 min 0,0 UV-I 299 W/m 20,6 km/h (4 Bft)
02.04.2013 18:06 8,8 C 7,9 C 42 % 1011,1 hPa 0,0 l/m 2 min 0 min 0,0 UV-I 288 W/m 28,3 km/h (4 Bft)
02.04.2013 18:08 8,8 C 7,9 C 43 % 1011,0 hPa 0,0 l/m 2 min 0 min 0,0 UV-I 281 W/m 12,9 km/h (3 Bft)
02.04.2013 18:10 8,8 C 7,9 C 42 % 1011,0 hPa 0,0 l/m 2 min 0 min 0,0 UV-I 279 W/m 12,9 km/h (3 Bft)
02.04.2013 18:12 8,8 C 7,9 C 42 % 1010,9 hPa 0,0 l/m 2 min 0 min 0,0 UV-I 276 W/m 10,3 km/h (2 Bft)
02.04.2013 18:14 8,8 C 7,9 C 42 % 1011,0 hPa 0,0 l/m 2 min 0 min 0,0 UV-I 267 W/m 20,6 km/h (4 Bft)
02.04.2013 18:16 8,7 C 7,9 C 42 % 1011,0 hPa 0,0 l/m 2 min 0 min 0,0 UV-I 260 W/m 18,0 km/h (3 Bft)
02.04.2013 18:18 8,7 C 7,9 C 42 % 1011,0 hPa 0,0 l/m 2 min 0 min 0,0 UV-I 253 W/m 18,0 km/h (3 Bft)
02.04.2013 18:20 8,7 C 7,3 C 42 % 1011,0 hPa 0,0 l/m 2 min 0 min 0,0 UV-I 244 W/m 10,3 km/h (2 Bft)
02.04.2013 18:22 8,6 C 7,3 C 43 % 1011,1 hPa 0,0 l/m 2 min 0 min 0,0 UV-I 186 W/m 12,9 km/h (3 Bft)
02.04.2013 18:24 8,5 C 7,3 C 42 % 1011,0 hPa 0,0 l/m 2 min 0 min 0,0 UV-I 181 W/m 18,0 km/h (3 Bft)
02.04.2013 18:26 8,4 C 7,3 C 42 % 1011,1 hPa 0,0 l/m 2 min 0 min 0,0 UV-I 230 W/m 18,0 km/h (3 Bft)
02.04.2013 18:28 8,3 C 7,3 C 43 % 1011,1 hPa 0,0 l/m 2 min 0 min 0,0 UV-I 193 W/m 18,0 km/h (3 Bft)
02.04.2013 18:30 8,2 C 7,3 C 44 % 1011,1 hPa 0,0 l/m 2 min 0 min 0,0 UV-I 220 W/m 12,9 km/h (3 Bft)
02.04.2013 18:32 8,2 C 8,4 C 43 % 1011,1 hPa 0,0 l/m 2 min 0 min 0,0 UV-I 216 W/m 10,3 km/h (2 Bft)
02.04.2013 18:34 8,1 C 9,0 C 44 % 1011,1 hPa 0,0 l/m 2 min 0 min 0,0 UV-I 206 W/m 12,9 km/h (3 Bft)
02.04.2013 18:36 8,1 C 9,0 C 44 % 1011,1 hPa 0,0 l/m 2 min 0 min 0,0 UV-I 202 W/m 28,3 km/h (4 Bft)
02.04.2013 18:38 8,0 C 8,4 C 44 % 1011,2 hPa 0,0 l/m 2 min 0 min 0,0 UV-I 183 W/m 15,4 km/h (3 Bft)
02.04.2013 18:40 7,9 C 7,9 C 44 % 1011,1 hPa 0,0 l/m 2 min 0 min 0,0 UV-I 192 W/m 12,9 km/h (3 Bft)
02.04.2013 18:42 7,9 C 7,9 C 45 % 1011,2 hPa 0,0 l/m 2 min 0 min 0,0 UV-I 186 W/m 12,9 km/h (3 Bft)
02.04.2013 18:44 7,8 C 8,4 C 44 % 1011,2 hPa 0,0 l/m 2 min 0 min 0,0 UV-I 155 W/m 7,7 km/h (2 Bft)
02.04.2013 18:46 7,8 C 8,4 C 45 % 1011,4 hPa 0,0 l/m 2 min 0 min 0,0 UV-I 160 W/m 23,2 km/h (4 Bft)
02.04.2013 18:48 7,7 C 7,9 C 45 % 1011,3 hPa 0,0 l/m 2 min 0 min 0,0 UV-I 169 W/m 18,0 km/h (3 Bft)
02.04.2013 18:50 7,7 C 7,3 C 45 % 1011,3 hPa 0,0 l/m 2 min 0 min 0,0 UV-I 149 W/m 12,9 km/h (3 Bft)
02.04.2013 18:52 7,6 C 6,8 C 45 % 1011,3 hPa 0,0 l/m 2 min 0 min 0,0 UV-I 139 W/m 15,4 km/h (3 Bft)
02.04.2013 18:54 7,5 C 6,2 C 46 % 1011,4 hPa 0,0 l/m 2 min 0 min 0,0 UV-I 130 W/m 15,4 km/h (3 Bft)
02.04.2013 18:56 7,4 C 6,2 C 46 % 1011,4 hPa 0,0 l/m 0 min 0 min 0,0 UV-I 97 W/m 15,4 km/h (3 Bft)
02.04.2013 18:58 7,3 C 5,7 C 46 % 1011,4 hPa 0,0 l/m 0 min 0 min 0,0 UV-I 63 W/m 20,6 km/h (4 Bft)
02.04.2013 19:00 7,2 C 5,7 C 46 % 1011,4 hPa 0,0 l/m 0 min 0 min 0,0 UV-I 79 W/m 12,9 km/h (3 Bft)
02.04.2013 19:02 7,2 C 5,7 C 47 % 1011,5 hPa 0,0 l/m 0 min 0 min 0,0 UV-I 84 W/m 15,4 km/h (3 Bft)
02.04.2013 19:06 7,1 C 5,7 C 47 % 1011,5 hPa 0,0 l/m 2 min 0 min 0,0 UV-I 97 W/m 15,4 km/h (3 Bft)
02.04.2013 19:08 7,1 C 5,7 C 47 % 1011,5 hPa 0,0 l/m 2 min 0 min 0,0 UV-I 97 W/m 18,0 km/h (3 Bft)
02.04.2013 19:10 7,0 C 5,7 C 47 % 1011,5 hPa 0,0 l/m 2 min 0 min 0,0 UV-I 95 W/m 15,4 km/h (3 Bft)
02.04.2013 19:12 6,9 C 5,1 C 47 % 1011,5 hPa 0,0 l/m 2 min 0 min 0,0 UV-I 93 W/m 15,4 km/h (3 Bft)
02.04.2013 19:14 6,9 C 5,1 C 47 % 1011,6 hPa 0,0 l/m 2 min 0 min 0,0 UV-I 81 W/m 12,9 km/h (3 Bft)
02.04.2013 19:16 6,8 C 5,1 C 47 % 1011,6 hPa 0,0 l/m 2 min 0 min 0,0 UV-I 81 W/m 10,3 km/h (2 Bft)
02.04.2013 19:18 6,8 C 5,1 C 47 % 1011,7 hPa 0,0 l/m 2 min 0 min 0,0 UV-I 77 W/m 12,9 km/h (3 Bft)
02.04.2013 19:20 6,7 C 5,1 C 47 % 1011,7 hPa 0,0 l/m 2 min 0 min 0,0 UV-I 70 W/m 12,9 km/h (3 Bft)
02.04.2013 19:22 6,7 C 5,1 C 48 % 1011,7 hPa 0,0 l/m 2 min 0 min 0,0 UV-I 63 W/m 7,7 km/h (2 Bft)
02.04.2013 19:24 6,6 C 4,6 C 48 % 1011,8 hPa 0,0 l/m 2 min 0 min 0,0 UV-I 60 W/m 10,3 km/h (2 Bft)
02.04.2013 19:26 6,6 C 4,6 C 48 % 1011,8 hPa 0,0 l/m 0 min 0 min 0,0 UV-I 56 W/m 5,1 km/h (1 Bft)
02.04.2013 19:28 6,5 C 4,6 C 49 % 1011,8 hPa 0,0 l/m 0 min 0 min 0,0 UV-I 42 W/m 15,4 km/h (3 Bft)
02.04.2013 19:30 6,4 C 4,6 C 49 % 1011,8 hPa 0,0 l/m 0 min 0 min 0,0 UV-I 33 W/m 15,4 km/h (3 Bft)
02.04.2013 19:32 6,4 C 4,6 C 49 % 1011,8 hPa 0,0 l/m 0 min 0 min 0,0 UV-I 32 W/m 7,7 km/h (2 Bft)
02.04.2013 19:34 6,3 C 4,6 C 49 % 1011,9 hPa 0,0 l/m 0 min 0 min 0,0 UV-I 26 W/m 10,3 km/h (2 Bft)
02.04.2013 19:36 6,3 C 4,0 C 50 % 1011,9 hPa 0,0 l/m 0 min 0 min 0,0 UV-I 21 W/m 5,1 km/h (1 Bft)
02.04.2013 19:38 6,2 C 4,0 C 50 % 1011,9 hPa 0,0 l/m 0 min 0 min 0,0 UV-I 19 W/m 7,7 km/h (2 Bft)
02.04.2013 19:40 6,1 C 4,0 C 50 % 1011,9 hPa 0,0 l/m 0 min 0 min 0,0 UV-I 18 W/m 12,9 km/h (3 Bft)
02.04.2013 19:42 6,1 C 4,0 C 50 % 1012,0 hPa 0,0 l/m 0 min 0 min 0,0 UV-I 16 W/m 18,0 km/h (3 Bft)
02.04.2013 19:44 5,9 C 4,0 C 50 % 1012,1 hPa 0,0 l/m 0 min 0 min 0,0 UV-I 16 W/m 7,7 km/h (2 Bft)
02.04.2013 19:46 5,9 C 4,0 C 50 % 1012,1 hPa 0,0 l/m 0 min 0 min 0,0 UV-I 14 W/m 20,6 km/h (4 Bft)
02.04.2013 19:48 5,8 C 4,0 C 50 % 1012,0 hPa 0,0 l/m 0 min 0 min 0,0 UV-I 14 W/m 12,9 km/h (3 Bft)
02.04.2013 19:50 5,8 C 4,0 C 51 % 1012,1 hPa 0,0 l/m 0 min 0 min 0,0 UV-I 12 W/m 7,7 km/h (2 Bft)
02.04.2013 19:52 5,7 C 4,0 C 52 % 1012,1 hPa 0,0 l/m 0 min 0 min 0,0 UV-I 11 W/m 10,3 km/h (2 Bft)
02.04.2013 19:54 5,7 C 3,4 C 52 % 1012,1 hPa 0,0 l/m 0 min 0 min 0,0 UV-I 11 W/m 15,4 km/h (3 Bft)
02.04.2013 19:56 5,6 C 3,4 C 52 % 1012,1 hPa 0,0 l/m 0 min 0 min 0,0 UV-I 9 W/m 20,6 km/h (4 Bft)
02.04.2013 19:58 5,5 C 3,4 C 52 % 1012,2 hPa 0,0 l/m 0 min 0 min 0,0 UV-I 9 W/m 10,3 km/h (2 Bft)
02.04.2013 20:00 5,4 C 3,4 C 52 % 1012,2 hPa 0,0 l/m 0 min 0 min 0,0 UV-I 7 W/m 12,9 km/h (3 Bft)
02.04.2013 20:02 5,3 C 3,4 C 53 % 1012,2 hPa 0,0 l/m 0 min 0 min 0,0 UV-I 7 W/m 7,7 km/h (2 Bft)
02.04.2013 20:06 5,2 C 3,4 C 53 % 1012,3 hPa 0,0 l/m 0 min 0 min 0,0 UV-I 5 W/m 15,4 km/h (3 Bft)
02.04.2013 20:08 5,2 C 3,4 C 53 % 1012,3 hPa 0,0 l/m 0 min 0 min 0,0 UV-I 5 W/m 12,9 km/h (3 Bft)
02.04.2013 20:10 5,2 C 3,4 C 53 % 1012,4 hPa 0,0 l/m 0 min 0 min 0,0 UV-I 0 W/m 10,3 km/h (2 Bft)
02.04.2013 20:12 5,1 C 3,4 C 54 % 1012,4 hPa 0,0 l/m 0 min 0 min 0,0 UV-I 0 W/m 12,9 km/h (3 Bft)
02.04.2013 20:14 5,1 C 3,4 C 54 % 1012,4 hPa 0,0 l/m 0 min 0 min 0,0 UV-I 0 W/m 20,6 km/h (4 Bft)
02.04.2013 20:16 5,0 C 3,4 C 54 % 1012,4 hPa 0,0 l/m 0 min 0 min 0,0 UV-I 0 W/m 5,1 km/h (1 Bft)
02.04.2013 20:18 4,9 C 2,9 C 54 % 1012,5 hPa 0,0 l/m 0 min 0 min 0,0 UV-I 0 W/m 12,9 km/h (3 Bft)
02.04.2013 20:20 4,9 C 2,9 C 54 % 1012,5 hPa 0,0 l/m 0 min 0 min 0,0 UV-I 0 W/m 10,3 km/h (2 Bft)
02.04.2013 20:22 4,9 C 2,9 C 55 % 1012,5 hPa 0,0 l/m 0 min 0 min 0,0 UV-I 0 W/m 5,1 km/h (1 Bft)
02.04.2013 20:24 4,8 C 2,9 C 55 % 1012,5 hPa 0,0 l/m 0 min 0 min 0,0 UV-I 0 W/m 10,3 km/h (2 Bft)
02.04.2013 20:26 4,8 C 2,9 C 55 % 1012,6 hPa 0,0 l/m 0 min 0 min 0,0 UV-I 0 W/m 15,4 km/h (3 Bft)
02.04.2013 20:28 4,7 C 2,9 C 55 % 1012,6 hPa 0,0 l/m 0 min 0 min 0,0 UV-I 0 W/m 10,3 km/h (2 Bft)
02.04.2013 20:30 4,7 C 2,9 C 55 % 1012,6 hPa 0,0 l/m 0 min 0 min 0,0 UV-I 0 W/m 12,9 km/h (3 Bft)
02.04.2013 20:32 4,7 C 2,9 C 55 % 1012,6 hPa 0,0 l/m 0 min 0 min 0,0 UV-I 0 W/m 10,3 km/h (2 Bft)
02.04.2013 20:34 4,6 C 2,9 C 55 % 1012,6 hPa 0,0 l/m 0 min 0 min 0,0 UV-I 0 W/m 15,4 km/h (3 Bft)
02.04.2013 20:36 4,6 C 2,9 C 55 % 1012,6 hPa 0,0 l/m 0 min 0 min 0,0 UV-I 0 W/m 15,4 km/h (3 Bft)
02.04.2013 20:38 4,5 C 2,9 C 56 % 1012,7 hPa 0,0 l/m 0 min 0 min 0,0 UV-I 0 W/m 10,3 km/h (2 Bft)
02.04.2013 20:40 4,5 C 2,9 C 56 % 1012,7 hPa 0,0 l/m 0 min 0 min 0,0 UV-I 0 W/m 7,7 km/h (2 Bft)
02.04.2013 20:42 4,4 C 2,9 C 56 % 1012,7 hPa 0,0 l/m 0 min 0 min 0,0 UV-I 0 W/m 12,9 km/h (3 Bft)
02.04.2013 20:44 4,4 C 2,9 C 56 % 1012,7 hPa 0,0 l/m 0 min 0 min 0,0 UV-I 0 W/m 15,4 km/h (3 Bft)
02.04.2013 20:46 4,4 C 2,9 C 56 % 1012,7 hPa 0,0 l/m 0 min 0 min 0,0 UV-I 0 W/m 10,3 km/h (2 Bft)
02.04.2013 20:48 4,4 C 2,3 C 56 % 1012,7 hPa 0,0 l/m 0 min 0 min 0,0 UV-I 0 W/m 7,7 km/h (2 Bft)
02.04.2013 20:50 4,3 C 2,3 C 56 % 1012,7 hPa 0,0 l/m 0 min 0 min 0,0 UV-I 0 W/m 7,7 km/h (2 Bft)
02.04.2013 20:52 4,3 C 2,3 C 56 % 1012,8 hPa 0,0 l/m 0 min 0 min 0,0 UV-I 0 W/m 7,7 km/h (2 Bft)
02.04.2013 20:54 4,3 C 2,3 C 57 % 1012,7 hPa 0,0 l/m 0 min 0 min 0,0 UV-I 0 W/m 10,3 km/h (2 Bft)
02.04.2013 20:56 4,2 C 2,3 C 57 % 1012,7 hPa 0,0 l/m 0 min 0 min 0,0 UV-I 0 W/m 7,7 km/h (2 Bft)
02.04.2013 20:58 4,2 C 2,3 C 57 % 1012,8 hPa 0,0 l/m 0 min 0 min 0,0 UV-I 0 W/m 7,7 km/h (2 Bft)
02.04.2013 21:00 4,1 C 2,3 C 57 % 1012,8 hPa 0,0 l/m 0 min 0 min 0,0 UV-I 0 W/m 7,7 km/h (2 Bft)
02.04.2013 21:02 4,1 C 2,3 C 57 % 1012,8 hPa 0,0 l/m 0 min 0 min 0,0 UV-I 0 W/m 10,3 km/h (2 Bft)
02.04.2013 21:06 4,1 C 2,3 C 57 % 1012,9 hPa 0,0 l/m 0 min 0 min 0,0 UV-I 0 W/m 10,3 km/h (2 Bft)
02.04.2013 21:08 4,1 C 2,3 C 57 % 1012,9 hPa 0,0 l/m 0 min 0 min 0,0 UV-I 0 W/m 12,9 km/h (3 Bft)
02.04.2013 21:10 3,9 C 2,3 C 58 % 1012,9 hPa 0,0 l/m 0 min 0 min 0,0 UV-I 0 W/m 5,1 km/h (1 Bft)
02.04.2013 21:12 3,9 C 2,3 C 58 % 1012,9 hPa 0,0 l/m 0 min 0 min 0,0 UV-I 0 W/m 10,3 km/h (2 Bft)
02.04.2013 21:14 3,9 C 1,8 C 58 % 1012,9 hPa 0,0 l/m 0 min 0 min 0,0 UV-I 0 W/m 10,3 km/h (2 Bft)
02.04.2013 21:16 3,9 C 1,8 C 58 % 1012,9 hPa 0,0 l/m 0 min 0 min 0,0 UV-I 0 W/m 10,3 km/h (2 Bft)
02.04.2013 21:18 3,8 C 2,3 C 58 % 1012,9 hPa 0,0 l/m 0 min 0 min 0,0 UV-I 0 W/m 15,4 km/h (3 Bft)
02.04.2013 21:20 3,8 C 2,3 C 58 % 1012,9 hPa 0,0 l/m 0 min 0 min 0,0 UV-I 0 W/m 10,3 km/h (2 Bft)
02.04.2013 21:22 3,8 C 2,3 C 59 % 1013,0 hPa 0,0 l/m 0 min 0 min 0,0 UV-I 0 W/m 7,7 km/h (2 Bft)
02.04.2013 21:24 3,8 C 2,3 C 59 % 1013,0 hPa 0,0 l/m 0 min 0 min 0,0 UV-I 0 W/m 2,6 km/h (1 Bft)
02.04.2013 21:26 3,8 C 1,8 C 59 % 1013,0 hPa 0,0 l/m 0 min 0 min 0,0 UV-I 0 W/m 10,3 km/h (2 Bft)
02.04.2013 21:28 3,7 C 1,8 C 59 % 1013,0 hPa 0,0 l/m 0 min 0 min 0,0 UV-I 0 W/m 2,6 km/h (1 Bft)
02.04.2013 21:30 3,7 C 1,8 C 59 % 1013,0 hPa 0,0 l/m 0 min 0 min 0,0 UV-I 0 W/m 12,9 km/h (3 Bft)
02.04.2013 21:32 3,7 C 1,8 C 59 % 1013,0 hPa 0,0 l/m 0 min 0 min 0,0 UV-I 0 W/m 7,7 km/h (2 Bft)
02.04.2013 21:34 3,7 C 1,8 C 59 % 1013,0 hPa 0,0 l/m 0 min 0 min 0,0 UV-I 0 W/m 5,1 km/h (1 Bft)
02.04.2013 21:36 3,6 C 1,8 C 60 % 1013,1 hPa 0,0 l/m 0 min 0 min 0,0 UV-I 0 W/m 7,7 km/h (2 Bft)
02.04.2013 21:38 3,6 C 1,8 C 60 % 1013,1 hPa 0,0 l/m 0 min 0 min 0,0 UV-I 0 W/m 5,1 km/h (1 Bft)
02.04.2013 21:40 3,6 C 1,8 C 60 % 1013,2 hPa 0,0 l/m 0 min 0 min 0,0 UV-I 0 W/m 10,3 km/h (2 Bft)
02.04.2013 21:42 3,5 C 1,8 C 60 % 1013,2 hPa 0,0 l/m 0 min 0 min 0,0 UV-I 0 W/m 7,7 km/h (2 Bft)
02.04.2013 21:44 3,5 C 1,8 C 60 % 1013,2 hPa 0,0 l/m 0 min 0 min 0,0 UV-I 0 W/m 7,7 km/h (2 Bft)
02.04.2013 21:46 3,4 C 1,8 C 60 % 1013,2 hPa 0,0 l/m 0 min 0 min 0,0 UV-I 0 W/m 2,6 km/h (1 Bft)
02.04.2013 21:48 3,4 C 1,8 C 60 % 1013,2 hPa 0,0 l/m 0 min 0 min 0,0 UV-I 0 W/m 15,4 km/h (3 Bft)
02.04.2013 21:50 3,4 C 1,8 C 60 % 1013,3 hPa 0,0 l/m 0 min 0 min 0,0 UV-I 0 W/m 18,0 km/h (3 Bft)
02.04.2013 21:52 3,4 C 1,8 C 60 % 1013,3 hPa 0,0 l/m 0 min 0 min 0,0 UV-I 0 W/m 10,3 km/h (2 Bft)
02.04.2013 21:54 3,3 C 1,8 C 61 % 1013,3 hPa 0,0 l/m 0 min 0 min 0,0 UV-I 0 W/m 12,9 km/h (3 Bft)
02.04.2013 21:56 3,3 C 1,8 C 61 % 1013,4 hPa 0,0 l/m 0 min 0 min 0,0 UV-I 0 W/m 10,3 km/h (2 Bft)
02.04.2013 21:58 3,3 C 1,8 C 61 % 1013,4 hPa 0,0 l/m 0 min 0 min 0,0 UV-I 0 W/m 5,1 km/h (1 Bft)
02.04.2013 22:00 3,3 C 1,8 C 61 % 1013,4 hPa 0,0 l/m 0 min 0 min 0,0 UV-I 0 W/m 10,3 km/h (2 Bft)
02.04.2013 22:02 3,2 C 1,8 C 61 % 1013,3 hPa 0,0 l/m 0 min 0 min 0,0 UV-I 0 W/m 7,7 km/h (2 Bft)
02.04.2013 22:06 3,2 C 1,2 C 61 % 1013,4 hPa 0,0 l/m 0 min 0 min 0,0 UV-I 0 W/m 7,7 km/h (2 Bft)
02.04.2013 22:08 3,2 C 1,2 C 61 % 1013,4 hPa 0,0 l/m 0 min 0 min 0,0 UV-I 0 W/m 7,7 km/h (2 Bft)
02.04.2013 22:10 3,1 C 1,2 C 62 % 1013,5 hPa 0,0 l/m 0 min 0 min 0,0 UV-I 0 W/m 7,7 km/h (2 Bft)
02.04.2013 22:12 3,1 C 1,2 C 62 % 1013,5 hPa 0,0 l/m 0 min 0 min 0,0 UV-I 0 W/m 12,9 km/h (3 Bft)
02.04.2013 22:14 3,1 C 1,2 C 62 % 1013,6 hPa 0,0 l/m 0 min 0 min 0,0 UV-I 0 W/m 12,9 km/h (3 Bft)
02.04.2013 22:16 3,0 C 1,2 C 62 % 1013,5 hPa 0,0 l/m 0 min 0 min 0,0 UV-I 0 W/m 7,7 km/h (2 Bft)
02.04.2013 22:18 2,9 C 1,2 C 62 % 1013,5 hPa 0,0 l/m 0 min 0 min 0,0 UV-I 0 W/m 2,6 km/h (1 Bft)
02.04.2013 22:20 2,9 C 1,2 C 62 % 1013,5 hPa 0,0 l/m 0 min 0 min 0,0 UV-I 0 W/m 2,6 km/h (1 Bft)
02.04.2013 22:22 2,9 C 1,2 C 62 % 1013,5 hPa 0,0 l/m 0 min 0 min 0,0 UV-I 0 W/m 10,3 km/h (2 Bft)
02.04.2013 22:24 2,9 C 1,2 C 63 % 1013,5 hPa 0,0 l/m 0 min 0 min 0,0 UV-I 0 W/m 5,1 km/h (1 Bft)
02.04.2013 22:26 2,8 C 1,2 C 63 % 1013,6 hPa 0,0 l/m 0 min 0 min 0,0 UV-I 0 W/m 5,1 km/h (1 Bft)
02.04.2013 22:28 2,8 C 1,2 C 63 % 1013,6 hPa 0,0 l/m 0 min 0 min 0,0 UV-I 0 W/m 7,7 km/h (2 Bft)
02.04.2013 22:30 2,8 C 1,2 C 63 % 1013,6 hPa 0,0 l/m 0 min 0 min 0,0 UV-I 0 W/m 7,7 km/h (2 Bft)
02.04.2013 22:32 2,7 C 0,7 C 63 % 1013,6 hPa 0,0 l/m 0 min 0 min 0,0 UV-I 0 W/m 10,3 km/h (2 Bft)
02.04.2013 22:34 2,7 C 0,7 C 63 % 1013,7 hPa 0,0 l/m 0 min 0 min 0,0 UV-I 0 W/m 5,1 km/h (1 Bft)
02.04.2013 22:36 2,7 C 0,7 C 63 % 1013,6 hPa 0,0 l/m 0 min 0 min 0,0 UV-I 0 W/m 10,3 km/h (2 Bft)
02.04.2013 22:38 2,7 C 0,7 C 63 % 1013,7 hPa 0,0 l/m 0 min 0 min 0,0 UV-I 0 W/m 5,1 km/h (1 Bft)
02.04.2013 22:40 2,6 C 0,7 C 64 % 1013,7 hPa 0,0 l/m 0 min 0 min 0,0 UV-I 0 W/m 7,7 km/h (2 Bft)
02.04.2013 22:42 2,6 C 0,7 C 64 % 1013,7 hPa 0,0 l/m 0 min 0 min 0,0 UV-I 0 W/m 5,1 km/h (1 Bft)
02.04.2013 22:44 2,6 C 0,7 C 64 % 1013,7 hPa 0,0 l/m 0 min 0 min 0,0 UV-I 0 W/m 2,6 km/h (1 Bft)
02.04.2013 22:46 2,5 C 0,7 C 64 % 1013,7 hPa 0,0 l/m 0 min 0 min 0,0 UV-I 0 W/m 5,1 km/h (1 Bft)
02.04.2013 22:48 2,5 C 0,7 C 64 % 1013,7 hPa 0,0 l/m 0 min 0 min 0,0 UV-I 0 W/m 12,9 km/h (3 Bft)
02.04.2013 22:50 2,5 C 0,7 C 64 % 1013,8 hPa 0,0 l/m 0 min 0 min 0,0 UV-I 0 W/m 12,9 km/h (3 Bft)
02.04.2013 22:55 2,4 C 0,7 C 64 % 1013,8 hPa 0,0 l/m 0 min 0 min 0,0 UV-I 0 W/m 10,3 km/h (2 Bft)
02.04.2013 22:56 2,4 C 0,7 C 64 % 1013,8 hPa 0,0 l/m 0 min 0 min 0,0 UV-I 0 W/m 7,7 km/h (2 Bft)
02.04.2013 22:58 2,4 C 0,7 C 64 % 1013,8 hPa 0,0 l/m 0 min 0 min 0,0 UV-I 0 W/m 5,1 km/h (1 Bft)
02.04.2013 23:00 2,3 C 0,7 C 64 % 1013,8 hPa 0,0 l/m 0 min 0 min 0,0 UV-I 0 W/m 10,3 km/h (2 Bft)
02.04.2013 23:02 2,3 C 0,7 C 65 % 1013,9 hPa 0,0 l/m 0 min 0 min 0,0 UV-I 0 W/m 5,1 km/h (1 Bft)
02.04.2013 23:06 2,2 C 0,7 C 65 % 1013,9 hPa 0,0 l/m 0 min 0 min 0,0 UV-I 0 W/m 10,3 km/h (2 Bft)
02.04.2013 23:08 2,2 C 0,1 C 65 % 1013,9 hPa 0,0 l/m 0 min 0 min 0,0 UV-I 0 W/m 7,7 km/h (2 Bft)
02.04.2013 23:10 2,2 C 0,1 C 65 % 1013,9 hPa 0,0 l/m 0 min 0 min 0,0 UV-I 0 W/m 5,1 km/h (1 Bft)
02.04.2013 23:12 2,2 C 0,1 C 65 % 1013,9 hPa 0,0 l/m 0 min 0 min 0,0 UV-I 0 W/m 5,1 km/h (1 Bft)
02.04.2013 23:14 2,1 C 0,1 C 65 % 1014,0 hPa 0,0 l/m 0 min 0 min 0,0 UV-I 0 W/m 10,3 km/h (2 Bft)
02.04.2013 23:16 2,1 C 0,1 C 65 % 1014,0 hPa 0,0 l/m 0 min 0 min 0,0 UV-I 0 W/m 5,1 km/h (1 Bft)
02.04.2013 23:18 2,1 C 0,1 C 65 % 1014,0 hPa 0,0 l/m 0 min 0 min 0,0 UV-I 0 W/m 7,7 km/h (2 Bft)
02.04.2013 23:20 2,0 C 0,1 C 65 % 1014,0 hPa 0,0 l/m 0 min 0 min 0,0 UV-I 0 W/m 5,1 km/h (1 Bft)
02.04.2013 23:22 2,0 C 0,1 C 66 % 1014,0 hPa 0,0 l/m 0 min 0 min 0,0 UV-I 0 W/m 7,7 km/h (2 Bft)
02.04.2013 23:24 1,9 C 0,1 C 66 % 1014,0 hPa 0,0 l/m 0 min 0 min 0,0 UV-I 0 W/m 10,3 km/h (2 Bft)
02.04.2013 23:26 1,9 C 0,1 C 65 % 1014,0 hPa 0,0 l/m 0 min 0 min 0,0 UV-I 0 W/m 18,0 km/h (3 Bft)
02.04.2013 23:28 1,9 C 0,1 C 65 % 1014,1 hPa 0,0 l/m 0 min 0 min 0,0 UV-I 0 W/m 7,7 km/h (2 Bft)
02.04.2013 23:30 1,9 C 0,1 C 66 % 1014,1 hPa 0,0 l/m 0 min 0 min 0,0 UV-I 0 W/m 2,6 km/h (1 Bft)
02.04.2013 23:32 1,9 C 0,1 C 66 % 1014,1 hPa 0,0 l/m 0 min 0 min 0,0 UV-I 0 W/m 2,6 km/h (1 Bft)
02.04.2013 23:34 1,9 C 0,1 C 66 % 1014,1 hPa 0,0 l/m 0 min 0 min 0,0 UV-I 0 W/m 0,0 km/h (0 Bft)
02.04.2013 23:36 1,8 C 0,1 C 66 % 1014,1 hPa 0,0 l/m 0 min 0 min 0,0 UV-I 0 W/m 7,7 km/h (2 Bft)
02.04.2013 23:38 1,8 C 0,1 C 66 % 1014,1 hPa 0,0 l/m 0 min 0 min 0,0 UV-I 0 W/m 2,6 km/h (1 Bft)
02.04.2013 23:40 1,8 C -0,4 C 66 % 1014,1 hPa 0,0 l/m 0 min 0 min 0,0 UV-I 0 W/m 0,0 km/h (0 Bft)
02.04.2013 23:42 1,7 C -0,4 C 66 % 1014,1 hPa 0,0 l/m 0 min 0 min 0,0 UV-I 0 W/m 2,6 km/h (1 Bft)
02.04.2013 23:44 1,7 C -0,4 C 66 % 1014,1 hPa 0,0 l/m 0 min 0 min 0,0 UV-I 0 W/m 0,0 km/h (0 Bft)
02.04.2013 23:46 1,7 C -0,4 C 66 % 1014,2 hPa 0,0 l/m 0 min 0 min 0,0 UV-I 0 W/m 0,0 km/h (0 Bft)
02.04.2013 23:48 1,6 C -0,4 C 66 % 1014,2 hPa 0,0 l/m 0 min 0 min 0,0 UV-I 0 W/m 0,0 km/h (0 Bft)
02.04.2013 23:50 1,6 C -0,4 C 66 % 1014,1 hPa 0,0 l/m 0 min 0 min 0,0 UV-I 0 W/m 0,0 km/h (0 Bft)
02.04.2013 23:52 1,6 C -0,4 C 67 % 1014,1 hPa 0,0 l/m 0 min 0 min 0,0 UV-I 0 W/m 0,0 km/h (0 Bft)
02.04.2013 23:54 1,5 C -1,0 C 67 % 1014,1 hPa 0,0 l/m 0 min 0 min 0,0 UV-I 0 W/m 0,0 km/h (0 Bft)
02.04.2013 23:56 1,4 C -1,0 C 67 % 1014,1 hPa 0,0 l/m 0 min 0 min 0,0 UV-I 0 W/m 0,0 km/h (0 Bft)
02.04.2013 23:58 1,3 C -1,0 C 67 % 1014,1 hPa 0,0 l/m 0 min 0 min 0,0 UV-I 0 W/m 0,0 km/h (0 Bft)
_ Min-Zeit 06:40 05:32 16:54 01:14 - - - - - 00:00
Minimum _ -2,2 C -4,3 C 40 % 1010,1 hPa - - - - - 0,0 km/h (0 Bft)
_ Max-Zeit 16:40 16:34 06:58 23:46 00:00 09:02 00:00 12:58 13:56 13:58
Maximum _ 9,5 C 13,4 C 81 % 1014,2 hPa 0,0 l/m 2 min 0 min 1,7 UV-I 689 W/m 43,8 km/h
SO (6 Bft)
Durchschnitt _ 3,3 C 2,1 C 60 % 1011,4 hPa #0,0 l/m #9:55 h #0 min. 1,3 UV-I 391 W/m 10,0 km/h (2 Bft)
© 2013 W. Hausmann